Time,TemperatureF,DewpointF,PressureIn,WindDirection,WindDirectionDegrees,WindSpeedMPH,WindSpeedGustMPH,Humidity,HourlyPrecipIn,Conditions,Clouds,dailyrainin,SoftwareType,DateUTC
2013-09-27 00:00:00,56.5,48.7,30.31,SE,135,2.0,6.0,75,0.00,,,0.00,meteohub,2013-09-27 04:00:00,
2013-09-27 00:01:00,56.5,48.7,30.31,SE,135,2.0,6.0,75,0.00,,,0.00,meteohub,2013-09-27 04:01:00,
2013-09-27 00:03:00,56.5,48.7,30.31,SE,135,2.0,6.0,75,0.00,,,0.00,meteohub,2013-09-27 04:03:00,
2013-09-27 00:06:00,56.5,48.7,30.31,SE,135,2.0,6.0,75,0.00,,,0.00,meteohub,2013-09-27 04:06:00,
2013-09-27 00:09:00,56.7,49.1,30.31,East,90,4.0,6.0,76,0.00,,,0.00,meteohub,2013-09-27 04:09:00,
2013-09-27 00:10:00,56.7,49.1,30.31,East,90,4.0,4.0,76,0.00,,,0.00,meteohub,2013-09-27 04:10:00,
2013-09-27 00:11:00,56.7,49.1,30.31,East,90,3.0,4.0,76,0.00,,,0.00,meteohub,2013-09-27 04:11:00,
2013-09-27 00:12:00,56.7,49.1,30.31,East,90,4.0,4.0,76,0.00,,,0.00,meteohub,2013-09-27 04:12:00,
2013-09-27 00:15:00,56.7,49.5,30.31,East,90,3.0,4.0,77,0.00,,,0.00,meteohub,2013-09-27 04:15:00,
2013-09-27 00:17:00,56.7,49.5,30.32,East,90,5.0,5.0,77,0.00,,,0.00,meteohub,2013-09-27 04:17:00,
2013-09-27 00:18:00,56.7,49.5,30.32,East,90,4.0,4.0,77,0.00,,,0.00,meteohub,2013-09-27 04:18:00,
2013-09-27 00:21:00,56.7,49.5,30.32,SE,135,2.0,5.0,77,0.00,,,0.00,meteohub,2013-09-27 04:21:00,
2013-09-27 00:22:00,56.7,49.5,30.31,East,90,4.0,5.0,77,0.00,,,0.00,meteohub,2013-09-27 04:22:00,
2013-09-27 00:23:00,56.8,49.6,30.32,East,90,8.0,8.0,77,0.00,,,0.00,meteohub,2013-09-27 04:23:00,
2013-09-27 00:24:00,56.8,49.6,30.32,SE,135,8.0,8.0,77,0.00,,,0.00,meteohub,2013-09-27 04:24:00,
2013-09-27 00:26:00,56.8,49.6,30.32,South,180,8.0,8.0,77,0.00,,,0.00,meteohub,2013-09-27 04:26:00,
2013-09-27 00:27:00,56.8,49.6,30.32,South,180,8.0,8.0,77,0.00,,,0.00,meteohub,2013-09-27 04:27:00,
2013-09-27 00:29:00,56.8,49.6,30.32,SE,135,3.0,8.0,77,0.00,,,0.00,meteohub,2013-09-27 04:29:00,
2013-09-27 00:30:00,56.8,49.6,30.31,SE,135,2.0,8.0,77,0.00,,,0.00,meteohub,2013-09-27 04:30:00,
2013-09-27 00:32:00,56.8,49.6,30.32,East,90,6.0,8.0,77,0.00,,,0.00,meteohub,2013-09-27 04:32:00,
2013-09-27 00:34:00,56.8,50.0,30.32,South,180,4.0,8.0,78,0.00,,,0.00,meteohub,2013-09-27 04:34:00,
2013-09-27 00:35:00,56.8,50.0,30.31,SE,135,8.0,8.0,78,0.00,,,0.00,meteohub,2013-09-27 04:35:00,
2013-09-27 00:37:00,56.8,50.0,30.32,East,90,8.0,8.0,78,0.00,,,0.00,meteohub,2013-09-27 04:37:00,
2013-09-27 00:38:00,56.8,50.0,30.32,East,90,8.0,8.0,78,0.00,,,0.00,meteohub,2013-09-27 04:38:00,
2013-09-27 00:40:00,56.8,50.0,30.32,South,180,8.0,8.0,78,0.00,,,0.00,meteohub,2013-09-27 04:40:00,
2013-09-27 00:41:00,56.8,50.0,30.32,East,90,3.0,8.0,78,0.00,,,0.00,meteohub,2013-09-27 04:41:00,
2013-09-27 00:43:00,56.7,49.8,30.32,South,180,4.0,8.0,78,0.00,,,0.00,meteohub,2013-09-27 04:43:00,
2013-09-27 00:44:00,56.7,49.8,30.31,SE,135,9.0,9.0,78,0.00,,,0.00,meteohub,2013-09-27 04:44:00,
2013-09-27 00:46:00,56.7,49.8,30.32,East,90,4.0,9.0,78,0.00,,,0.00,meteohub,2013-09-27 04:46:00,
2013-09-27 00:48:00,56.7,49.8,30.32,SE,135,4.0,9.0,78,0.00,,,0.00,meteohub,2013-09-27 04:48:00,
2013-09-27 00:49:00,56.5,49.6,30.32,SE,135,6.0,9.0,78,0.00,,,0.00,meteohub,2013-09-27 04:49:00,
2013-09-27 00:50:00,56.5,49.6,30.32,SE,135,6.0,9.0,78,0.00,,,0.00,meteohub,2013-09-27 04:50:00,
2013-09-27 00:51:00,56.5,49.6,30.32,NE,45,5.0,9.0,78,0.00,,,0.00,meteohub,2013-09-27 04:51:00,
2013-09-27 00:52:00,56.5,50.0,30.32,SE,135,4.0,9.0,79,0.00,,,0.00,meteohub,2013-09-27 04:52:00,
2013-09-27 00:54:00,56.5,50.0,30.32,North,0,8.0,9.0,79,0.00,,,0.00,meteohub,2013-09-27 04:54:00,
2013-09-27 00:55:00,56.5,50.0,30.32,East,90,4.0,9.0,79,0.00,,,0.00,meteohub,2013-09-27 04:55:00,
2013-09-27 00:56:00,56.5,50.0,30.32,SE,135,4.0,9.0,79,0.00,,,0.00,meteohub,2013-09-27 04:56:00,
2013-09-27 00:57:00,56.5,50.0,30.32,East,90,4.0,9.0,79,0.00,,,0.00,meteohub,2013-09-27 04:57:00,
2013-09-27 00:58:00,56.5,50.0,30.32,SE,135,4.0,9.0,79,0.00,,,0.00,meteohub,2013-09-27 04:58:00,
2013-09-27 01:00:00,56.5,50.0,30.32,SE,135,3.0,9.0,79,0.00,,,0.00,meteohub,2013-09-27 05:00:00,
2013-09-27 01:02:00,56.5,50.0,30.32,SE,135,3.0,8.0,79,0.00,,,0.00,meteohub,2013-09-27 05:02:00,
2013-09-27 01:03:00,56.5,50.0,30.32,SE,135,3.0,8.0,79,0.00,,,0.00,meteohub,2013-09-27 05:03:00,
2013-09-27 01:05:00,56.5,50.0,30.32,SE,135,3.0,8.0,79,0.00,,,0.00,meteohub,2013-09-27 05:05:00,
2013-09-27 01:06:00,56.5,50.0,30.33,SE,135,3.0,8.0,79,0.00,,,0.00,meteohub,2013-09-27 05:06:00,
2013-09-27 01:08:00,56.3,50.2,30.32,SE,135,3.0,8.0,80,0.00,,,0.00,meteohub,2013-09-27 05:08:00,
2013-09-27 01:09:00,56.3,49.8,30.32,SE,135,5.0,8.0,79,0.00,,,0.00,meteohub,2013-09-27 05:09:00,
2013-09-27 01:10:00,56.3,50.2,30.32,South,180,3.0,5.0,80,0.00,,,0.00,meteohub,2013-09-27 05:10:00,
2013-09-27 01:12:00,56.3,50.2,30.32,South,180,3.0,5.0,80,0.00,,,0.00,meteohub,2013-09-27 05:12:00,
2013-09-27 01:14:00,56.1,50.0,30.32,SE,135,4.0,5.0,80,0.00,,,0.00,meteohub,2013-09-27 05:14:00,
2013-09-27 01:16:00,56.1,50.0,30.32,East,90,3.0,5.0,80,0.00,,,0.00,meteohub,2013-09-27 05:16:00,
2013-09-27 01:18:00,56.1,50.0,30.32,East,90,3.0,5.0,80,0.00,,,0.00,meteohub,2013-09-27 05:18:00,
2013-09-27 01:19:00,56.1,50.0,30.32,East,90,3.0,5.0,80,0.00,,,0.00,meteohub,2013-09-27 05:19:00,
2013-09-27 01:22:00,55.9,49.8,30.32,South,180,4.0,5.0,80,0.00,,,0.00,meteohub,2013-09-27 05:22:00,
2013-09-27 01:23:00,56.1,50.0,30.32,South,180,3.0,5.0,80,0.00,,,0.00,meteohub,2013-09-27 05:23:00,
2013-09-27 01:27:00,55.9,49.8,30.32,SE,135,3.0,8.0,80,0.00,,,0.00,meteohub,2013-09-27 05:27:00,
2013-09-27 01:28:00,55.9,50.2,30.32,SE,135,5.0,8.0,81,0.00,,,0.00,meteohub,2013-09-27 05:28:00,
2013-09-27 01:29:00,55.9,50.2,30.32,SE,135,3.0,8.0,81,0.00,,,0.00,meteohub,2013-09-27 05:29:00,
2013-09-27 01:33:00,55.8,50.0,30.32,SE,135,6.0,8.0,81,0.00,,,0.00,meteohub,2013-09-27 05:33:00,
2013-09-27 01:34:00,55.8,50.0,30.33,East,90,3.0,8.0,81,0.00,,,0.00,meteohub,2013-09-27 05:34:00,
2013-09-27 01:36:00,55.8,50.0,30.32,East,90,4.0,8.0,81,0.00,,,0.00,meteohub,2013-09-27 05:36:00,
2013-09-27 01:38:00,55.8,50.0,30.32,East,90,2.0,8.0,81,0.00,,,0.00,meteohub,2013-09-27 05:38:00,
2013-09-27 01:39:00,55.8,50.0,30.32,SE,135,4.0,8.0,81,0.00,,,0.00,meteohub,2013-09-27 05:39:00,
2013-09-27 01:40:00,55.8,50.0,30.32,SE,135,3.0,8.0,81,0.00,,,0.00,meteohub,2013-09-27 05:40:00,
2013-09-27 01:42:00,55.8,50.0,30.32,SE,135,4.0,6.0,81,0.00,,,0.00,meteohub,2013-09-27 05:42:00,
2013-09-27 01:43:00,55.8,50.0,30.32,East,90,3.0,6.0,81,0.00,,,0.00,meteohub,2013-09-27 05:43:00,
2013-09-27 01:45:00,55.8,50.0,30.32,East,90,4.0,6.0,81,0.00,,,0.00,meteohub,2013-09-27 05:45:00,
2013-09-27 01:47:00,55.8,50.4,30.32,East,90,3.0,6.0,82,0.00,,,0.00,meteohub,2013-09-27 05:47:00,
2013-09-27 01:48:00,55.8,50.4,30.32,East,90,3.0,6.0,82,0.00,,,0.00,meteohub,2013-09-27 05:48:00,
2013-09-27 01:50:00,55.8,50.4,30.32,East,90,3.0,5.0,82,0.00,,,0.00,meteohub,2013-09-27 05:50:00,
2013-09-27 01:53:00,55.8,50.4,30.32,SE,135,2.0,5.0,82,0.00,,,0.00,meteohub,2013-09-27 05:53:00,
2013-09-27 01:54:00,55.8,50.4,30.32,East,90,3.0,5.0,82,0.00,,,0.00,meteohub,2013-09-27 05:54:00,
2013-09-27 01:55:00,55.6,50.2,30.33,East,90,3.0,5.0,82,0.00,,,0.00,meteohub,2013-09-27 05:55:00,
2013-09-27 01:56:00,55.6,50.2,30.33,East,90,3.0,5.0,82,0.00,,,0.00,meteohub,2013-09-27 05:56:00,
2013-09-27 01:59:00,55.6,50.2,30.33,South,180,2.0,4.0,82,0.00,,,0.00,meteohub,2013-09-27 05:59:00,
2013-09-27 02:00:00,55.6,50.2,30.33,East,90,3.0,4.0,82,0.00,,,0.00,meteohub,2013-09-27 06:00:00,
2013-09-27 02:01:00,55.6,50.2,30.33,East,90,3.0,4.0,82,0.00,,,0.00,meteohub,2013-09-27 06:01:00,
2013-09-27 02:02:00,55.6,50.2,30.33,East,90,3.0,4.0,82,0.00,,,0.00,meteohub,2013-09-27 06:02:00,
2013-09-27 02:05:00,55.6,50.2,30.33,East,90,3.0,4.0,82,0.00,,,0.00,meteohub,2013-09-27 06:05:00,
2013-09-27 02:06:00,55.6,50.2,30.32,East,90,3.0,4.0,82,0.00,,,0.00,meteohub,2013-09-27 06:06:00,
2013-09-27 02:07:00,55.4,50.4,30.33,East,90,4.0,4.0,83,0.00,,,0.00,meteohub,2013-09-27 06:07:00,
2013-09-27 02:09:00,55.4,50.4,30.33,East,90,3.0,4.0,83,0.00,,,0.00,meteohub,2013-09-27 06:09:00,
2013-09-27 02:11:00,55.4,50.4,30.32,East,90,4.0,4.0,83,0.00,,,0.00,meteohub,2013-09-27 06:11:00,
2013-09-27 02:13:00,55.4,50.4,30.32,SE,135,2.0,4.0,83,0.00,,,0.00,meteohub,2013-09-27 06:13:00,
2013-09-27 02:14:00,55.4,50.4,30.33,WSW,248,4.0,4.0,83,0.00,,,0.00,meteohub,2013-09-27 06:14:00,
2013-09-27 02:17:00,55.4,50.4,30.32,East,90,3.0,4.0,83,0.00,,,0.00,meteohub,2013-09-27 06:17:00,
2013-09-27 02:18:00,55.4,50.4,30.32,East,90,4.0,4.0,83,0.00,,,0.00,meteohub,2013-09-27 06:18:00,
2013-09-27 02:22:00,55.4,50.4,30.32,East,90,3.0,4.0,83,0.00,,,0.00,meteohub,2013-09-27 06:22:00,
2013-09-27 02:23:00,55.4,50.4,30.33,East,90,4.0,4.0,83,0.00,,,0.00,meteohub,2013-09-27 06:23:00,
2013-09-27 02:24:00,55.2,50.2,30.32,East,90,3.0,4.0,83,0.00,,,0.00,meteohub,2013-09-27 06:24:00,
2013-09-27 02:25:00,55.2,50.2,30.33,East,90,4.0,4.0,83,0.00,,,0.00,meteohub,2013-09-27 06:25:00,
2013-09-27 02:27:00,55.2,50.2,30.33,East,90,3.0,4.0,83,0.00,,,0.00,meteohub,2013-09-27 06:27:00,
2013-09-27 02:28:00,55.2,50.5,30.33,East,90,4.0,4.0,84,0.00,,,0.00,meteohub,2013-09-27 06:28:00,
2013-09-27 02:29:00,55.2,50.5,30.32,East,90,2.0,4.0,84,0.00,,,0.00,meteohub,2013-09-27 06:29:00,
2013-09-27 02:30:00,55.2,50.5,30.32,East,90,2.0,4.0,84,0.00,,,0.00,meteohub,2013-09-27 06:30:00,
2013-09-27 02:32:00,55.2,50.5,30.33,East,90,3.0,4.0,84,0.00,,,0.00,meteohub,2013-09-27 06:32:00,
2013-09-27 02:33:00,55.2,50.5,30.33,SE,135,4.0,4.0,84,0.00,,,0.00,meteohub,2013-09-27 06:33:00,
2013-09-27 02:34:00,55.0,50.4,30.33,East,90,3.0,4.0,84,0.00,,,0.00,meteohub,2013-09-27 06:34:00,
2013-09-27 02:35:00,55.0,50.4,30.33,East,90,3.0,4.0,84,0.00,,,0.00,meteohub,2013-09-27 06:35:00,
2013-09-27 02:36:00,55.0,50.4,30.33,East,90,2.0,4.0,84,0.00,,,0.00,meteohub,2013-09-27 06:36:00,
2013-09-27 02:38:00,55.0,50.4,30.33,East,90,4.0,4.0,84,0.00,,,0.00,meteohub,2013-09-27 06:38:00,
2013-09-27 02:39:00,55.0,50.4,30.33,East,90,3.0,4.0,84,0.00,,,0.00,meteohub,2013-09-27 06:39:00,
2013-09-27 02:41:00,55.0,50.4,30.33,East,90,3.0,4.0,84,0.00,,,0.00,meteohub,2013-09-27 06:41:00,
2013-09-27 02:42:00,55.0,50.5,30.33,East,90,3.0,4.0,85,0.00,,,0.00,meteohub,2013-09-27 06:42:00,
2013-09-27 02:44:00,54.9,50.4,30.33,East,90,3.0,4.0,85,0.00,,,0.00,meteohub,2013-09-27 06:44:00,
2013-09-27 02:45:00,54.9,50.4,30.33,East,90,3.0,4.0,85,0.00,,,0.00,meteohub,2013-09-27 06:45:00,
2013-09-27 02:46:00,54.9,50.4,30.33,East,90,4.0,4.0,85,0.00,,,0.00,meteohub,2013-09-27 06:46:00,
2013-09-27 02:47:00,54.9,50.4,30.33,East,90,4.0,4.0,85,0.00,,,0.00,meteohub,2013-09-27 06:47:00,
2013-09-27 02:49:00,54.9,50.4,30.33,East,90,3.0,4.0,85,0.00,,,0.00,meteohub,2013-09-27 06:49:00,
2013-09-27 02:52:00,54.7,50.2,30.33,East,90,3.0,4.0,85,0.00,,,0.00,meteohub,2013-09-27 06:52:00,
2013-09-27 02:55:00,54.7,50.2,30.33,East,90,3.0,4.0,85,0.00,,,0.00,meteohub,2013-09-27 06:55:00,
2013-09-27 02:57:00,54.5,50.4,30.33,East,90,3.0,4.0,86,0.00,,,0.00,meteohub,2013-09-27 06:57:00,
2013-09-27 03:00:00,54.5,50.4,30.33,East,90,4.0,4.0,86,0.00,,,0.00,meteohub,2013-09-27 07:00:00,
2013-09-27 03:01:00,54.5,50.4,30.33,East,90,4.0,4.0,86,0.00,,,0.00,meteohub,2013-09-27 07:01:00,
2013-09-27 03:03:00,54.5,50.4,30.33,East,90,4.0,4.0,86,0.00,,,0.00,meteohub,2013-09-27 07:03:00,
2013-09-27 03:06:00,54.5,50.4,30.33,East,90,4.0,4.0,86,0.00,,,0.00,meteohub,2013-09-27 07:06:00,
2013-09-27 03:09:00,54.3,50.2,30.32,East,90,4.0,4.0,86,0.00,,,0.00,meteohub,2013-09-27 07:09:00,
2013-09-27 03:11:00,54.3,50.5,30.32,East,90,2.0,4.0,87,0.00,,,0.00,meteohub,2013-09-27 07:11:00,
2013-09-27 03:12:00,54.3,50.5,30.32,East,90,2.0,4.0,87,0.00,,,0.00,meteohub,2013-09-27 07:12:00,
2013-09-27 03:14:00,54.1,50.4,30.32,East,90,4.0,4.0,87,0.00,,,0.00,meteohub,2013-09-27 07:14:00,
2013-09-27 03:15:00,54.1,50.4,30.32,East,90,3.0,4.0,87,0.00,,,0.00,meteohub,2013-09-27 07:15:00,
2013-09-27 03:17:00,54.1,50.4,30.32,East,90,3.0,4.0,87,0.00,,,0.00,meteohub,2013-09-27 07:17:00,
2013-09-27 03:18:00,54.1,50.4,30.32,East,90,4.0,4.0,87,0.00,,,0.00,meteohub,2013-09-27 07:18:00,
2013-09-27 03:19:00,54.1,50.4,30.32,East,90,3.0,4.0,87,0.00,,,0.00,meteohub,2013-09-27 07:19:00,
2013-09-27 03:21:00,54.1,50.4,30.32,East,90,3.0,4.0,87,0.00,,,0.00,meteohub,2013-09-27 07:21:00,
2013-09-27 03:22:00,54.1,50.4,30.32,East,90,3.0,4.0,87,0.00,,,0.00,meteohub,2013-09-27 07:22:00,
2013-09-27 03:25:00,54.1,50.4,30.32,East,90,4.0,4.0,87,0.00,,,0.00,meteohub,2013-09-27 07:25:00,
2013-09-27 03:26:00,54.1,50.4,30.32,East,90,3.0,4.0,87,0.00,,,0.00,meteohub,2013-09-27 07:26:00,
2013-09-27 03:27:00,54.1,50.4,30.32,East,90,3.0,4.0,87,0.00,,,0.00,meteohub,2013-09-27 07:27:00,
2013-09-27 03:29:00,54.1,50.4,30.32,East,90,4.0,4.0,87,0.00,,,0.00,meteohub,2013-09-27 07:29:00,
2013-09-27 03:32:00,54.1,50.4,30.32,East,90,3.0,4.0,87,0.00,,,0.00,meteohub,2013-09-27 07:32:00,
2013-09-27 03:34:00,54.1,50.4,30.32,East,90,3.0,4.0,87,0.00,,,0.00,meteohub,2013-09-27 07:34:00,
2013-09-27 03:35:00,54.1,50.4,30.32,East,90,4.0,4.0,87,0.00,,,0.00,meteohub,2013-09-27 07:35:00,
2013-09-27 03:37:00,54.1,50.4,30.32,East,90,3.0,4.0,87,0.00,,,0.00,meteohub,2013-09-27 07:37:00,
2013-09-27 03:38:00,54.1,50.4,30.32,East,90,4.0,4.0,87,0.00,,,0.00,meteohub,2013-09-27 07:38:00,
2013-09-27 03:40:00,54.1,50.4,30.33,East,90,4.0,4.0,87,0.00,,,0.00,meteohub,2013-09-27 07:40:00,
2013-09-27 03:42:00,54.1,50.4,30.32,East,90,3.0,4.0,87,0.00,,,0.00,meteohub,2013-09-27 07:42:00,
2013-09-27 03:43:00,54.1,50.4,30.32,East,90,3.0,4.0,87,0.00,,,0.00,meteohub,2013-09-27 07:43:00,
2013-09-27 03:44:00,54.1,50.4,30.32,East,90,4.0,4.0,87,0.00,,,0.00,meteohub,2013-09-27 07:44:00,
2013-09-27 03:45:00,54.1,50.4,30.32,East,90,4.0,4.0,87,0.00,,,0.00,meteohub,2013-09-27 07:45:00,
2013-09-27 03:48:00,54.0,50.2,30.32,East,90,4.0,4.0,87,0.00,,,0.00,meteohub,2013-09-27 07:48:00,
2013-09-27 03:49:00,54.0,50.2,30.32,East,90,4.0,4.0,87,0.00,,,0.00,meteohub,2013-09-27 07:49:00,
2013-09-27 03:50:00,54.0,50.5,30.32,East,90,4.0,4.0,88,0.00,,,0.00,meteohub,2013-09-27 07:50:00,
2013-09-27 03:54:00,54.0,50.5,30.32,East,90,4.0,4.0,88,0.00,,,0.00,meteohub,2013-09-27 07:54:00,
2013-09-27 03:55:00,54.0,50.5,30.33,SE,135,3.0,4.0,88,0.00,,,0.00,meteohub,2013-09-27 07:55:00,
2013-09-27 03:57:00,54.0,50.5,30.32,East,90,4.0,4.0,88,0.00,,,0.00,meteohub,2013-09-27 07:57:00,
2013-09-27 03:59:00,54.0,50.5,30.32,East,90,4.0,4.0,88,0.00,,,0.00,meteohub,2013-09-27 07:59:00,
2013-09-27 04:00:00,54.0,50.5,30.32,East,90,4.0,4.0,88,0.00,,,0.00,meteohub,2013-09-27 08:00:00,
2013-09-27 04:01:00,54.0,50.5,30.33,East,90,4.0,4.0,88,0.00,,,0.00,meteohub,2013-09-27 08:01:00,
2013-09-27 04:02:00,54.0,50.5,30.32,South,180,4.0,4.0,88,0.00,,,0.00,meteohub,2013-09-27 08:02:00,
2013-09-27 04:05:00,54.0,50.5,30.33,East,90,3.0,4.0,88,0.00,,,0.00,meteohub,2013-09-27 08:05:00,
2013-09-27 04:06:00,53.8,50.4,30.32,SE,135,3.0,4.0,88,0.00,,,0.00,meteohub,2013-09-27 08:06:00,
2013-09-27 04:07:00,53.8,50.4,30.32,East,90,5.0,5.0,88,0.00,,,0.00,meteohub,2013-09-27 08:07:00,
2013-09-27 04:10:00,53.8,50.4,30.33,East,90,4.0,4.0,88,0.00,,,0.00,meteohub,2013-09-27 08:10:00,
2013-09-27 04:11:00,53.8,50.4,30.32,East,90,4.0,5.0,88,0.00,,,0.00,meteohub,2013-09-27 08:11:00,
2013-09-27 04:12:00,53.6,50.2,30.32,East,90,4.0,5.0,88,0.00,,,0.00,meteohub,2013-09-27 08:12:00,
2013-09-27 04:15:00,53.6,50.2,30.33,East,90,4.0,5.0,88,0.00,,,0.00,meteohub,2013-09-27 08:15:00,
2013-09-27 04:16:00,53.6,50.2,30.33,East,90,4.0,5.0,88,0.00,,,0.00,meteohub,2013-09-27 08:16:00,
2013-09-27 04:17:00,53.6,50.2,30.33,East,90,4.0,5.0,88,0.00,,,0.00,meteohub,2013-09-27 08:17:00,
2013-09-27 04:18:00,53.6,50.2,30.32,East,90,4.0,5.0,88,0.00,,,0.00,meteohub,2013-09-27 08:18:00,
2013-09-27 04:21:00,53.6,50.2,30.32,East,90,4.0,6.0,88,0.00,,,0.00,meteohub,2013-09-27 08:21:00,
2013-09-27 04:23:00,53.4,50.2,30.33,East,90,4.0,6.0,89,0.00,,,0.00,meteohub,2013-09-27 08:23:00,
2013-09-27 04:26:00,53.4,50.2,30.33,East,90,4.0,6.0,89,0.00,,,0.00,meteohub,2013-09-27 08:26:00,
2013-09-27 04:27:00,53.4,50.2,30.33,East,90,4.0,6.0,89,0.00,,,0.00,meteohub,2013-09-27 08:27:00,
2013-09-27 04:28:00,53.4,50.2,30.33,East,90,4.0,6.0,89,0.00,,,0.00,meteohub,2013-09-27 08:28:00,
2013-09-27 04:29:00,53.4,50.2,30.33,East,90,4.0,6.0,89,0.00,,,0.00,meteohub,2013-09-27 08:29:00,
2013-09-27 04:31:00,53.2,50.0,30.33,East,90,4.0,4.0,89,0.00,,,0.00,meteohub,2013-09-27 08:31:00,
2013-09-27 04:32:00,53.2,50.4,30.33,East,90,4.0,4.0,90,0.00,,,0.00,meteohub,2013-09-27 08:32:00,
2013-09-27 04:34:00,53.2,50.4,30.33,East,90,3.0,4.0,90,0.00,,,0.00,meteohub,2013-09-27 08:34:00,
2013-09-27 04:35:00,53.2,50.4,30.33,East,90,4.0,4.0,90,0.00,,,0.00,meteohub,2013-09-27 08:35:00,
2013-09-27 04:37:00,53.1,50.2,30.33,East,90,4.0,4.0,90,0.00,,,0.00,meteohub,2013-09-27 08:37:00,
2013-09-27 04:38:00,53.1,50.2,30.33,East,90,4.0,4.0,90,0.00,,,0.00,meteohub,2013-09-27 08:38:00,
2013-09-27 04:39:00,53.1,50.2,30.33,East,90,4.0,4.0,90,0.00,,,0.00,meteohub,2013-09-27 08:39:00,
2013-09-27 04:40:00,53.1,50.2,30.33,East,90,4.0,4.0,90,0.00,,,0.00,meteohub,2013-09-27 08:40:00,
2013-09-27 04:41:00,53.1,50.2,30.33,East,90,4.0,4.0,90,0.00,,,0.00,meteohub,2013-09-27 08:41:00,
2013-09-27 04:43:00,53.1,50.2,30.33,East,90,4.0,4.0,90,0.00,,,0.00,meteohub,2013-09-27 08:43:00,
2013-09-27 04:46:00,53.1,50.2,30.33,East,90,4.0,4.0,90,0.00,,,0.00,meteohub,2013-09-27 08:46:00,
2013-09-27 04:47:00,53.1,50.2,30.33,East,90,4.0,4.0,90,0.00,,,0.00,meteohub,2013-09-27 08:47:00,
2013-09-27 04:48:00,53.1,50.2,30.33,East,90,4.0,4.0,90,0.00,,,0.00,meteohub,2013-09-27 08:48:00,
2013-09-27 04:49:00,53.1,50.2,30.33,East,90,4.0,4.0,90,0.00,,,0.00,meteohub,2013-09-27 08:49:00,
2013-09-27 04:51:00,53.1,50.5,30.33,East,90,4.0,4.0,91,0.00,,,0.00,meteohub,2013-09-27 08:51:00,
2013-09-27 04:53:00,53.1,50.5,30.33,East,90,4.0,4.0,91,0.00,,,0.00,meteohub,2013-09-27 08:53:00,
2013-09-27 04:54:00,53.1,50.5,30.33,East,90,4.0,4.0,91,0.00,,,0.00,meteohub,2013-09-27 08:54:00,
2013-09-27 04:57:00,52.9,50.4,30.33,East,90,4.0,4.0,91,0.00,,,0.00,meteohub,2013-09-27 08:57:00,
2013-09-27 04:59:00,52.9,50.4,30.33,East,90,4.0,4.0,91,0.00,,,0.00,meteohub,2013-09-27 08:59:00,
2013-09-27 05:02:00,52.9,50.4,30.33,East,90,4.0,4.0,91,0.00,,,0.00,meteohub,2013-09-27 09:02:00,
2013-09-27 05:03:00,52.9,50.4,30.33,East,90,4.0,4.0,91,0.00,,,0.00,meteohub,2013-09-27 09:03:00,
2013-09-27 05:04:00,52.9,50.4,30.33,East,90,4.0,4.0,91,0.00,,,0.00,meteohub,2013-09-27 09:04:00,
2013-09-27 05:05:00,52.9,50.4,30.34,East,90,4.0,4.0,91,0.00,,,0.00,meteohub,2013-09-27 09:05:00,
2013-09-27 05:07:00,52.9,50.4,30.34,East,90,4.0,4.0,91,0.00,,,0.00,meteohub,2013-09-27 09:07:00,
2013-09-27 05:10:00,53.1,50.5,30.33,NE,45,4.0,4.0,91,0.00,,,0.00,meteohub,2013-09-27 09:10:00,
2013-09-27 05:11:00,52.9,50.4,30.33,East,90,4.0,4.0,91,0.00,,,0.00,meteohub,2013-09-27 09:11:00,
2013-09-27 05:14:00,53.1,50.5,30.33,East,90,4.0,4.0,91,0.00,,,0.00,meteohub,2013-09-27 09:14:00,
2013-09-27 05:15:00,53.1,50.5,30.34,East,90,4.0,4.0,91,0.00,,,0.00,meteohub,2013-09-27 09:15:00,
2013-09-27 05:16:00,53.1,50.5,30.34,East,90,4.0,4.0,91,0.00,,,0.00,meteohub,2013-09-27 09:16:00,
2013-09-27 05:17:00,53.1,50.5,30.33,East,90,4.0,4.0,91,0.00,,,0.00,meteohub,2013-09-27 09:17:00,
2013-09-27 05:21:00,53.1,50.5,30.33,East,90,4.0,4.0,91,0.00,,,0.00,meteohub,2013-09-27 09:21:00,
2013-09-27 05:22:00,53.1,50.5,30.34,East,90,4.0,4.0,91,0.00,,,0.00,meteohub,2013-09-27 09:22:00,
2013-09-27 05:26:00,52.9,50.4,30.34,East,90,4.0,4.0,91,0.00,,,0.00,meteohub,2013-09-27 09:26:00,
2013-09-27 05:27:00,52.9,50.4,30.34,East,90,3.0,4.0,91,0.00,,,0.00,meteohub,2013-09-27 09:27:00,
2013-09-27 05:29:00,52.9,50.4,30.34,East,90,4.0,4.0,91,0.00,,,0.00,meteohub,2013-09-27 09:29:00,
2013-09-27 05:31:00,52.9,50.4,30.34,East,90,4.0,4.0,91,0.00,,,0.00,meteohub,2013-09-27 09:31:00,
2013-09-27 05:32:00,52.9,50.4,30.34,East,90,4.0,4.0,91,0.00,,,0.00,meteohub,2013-09-27 09:32:00,
2013-09-27 05:33:00,52.9,50.4,30.35,East,90,4.0,4.0,91,0.00,,,0.00,meteohub,2013-09-27 09:33:00,
2013-09-27 05:36:00,52.7,50.4,30.35,East,90,4.0,4.0,92,0.00,,,0.00,meteohub,2013-09-27 09:36:00,
2013-09-27 05:37:00,52.7,50.4,30.34,East,90,4.0,4.0,92,0.00,,,0.00,meteohub,2013-09-27 09:37:00,
2013-09-27 05:38:00,52.7,50.4,30.34,East,90,4.0,4.0,92,0.00,,,0.00,meteohub,2013-09-27 09:38:00,
2013-09-27 05:41:00,52.7,50.4,30.35,East,90,4.0,4.0,92,0.00,,,0.00,meteohub,2013-09-27 09:41:00,
2013-09-27 05:42:00,52.7,50.4,30.34,East,90,4.0,4.0,92,0.00,,,0.00,meteohub,2013-09-27 09:42:00,
2013-09-27 05:44:00,52.7,50.4,30.35,East,90,4.0,4.0,92,0.00,,,0.00,meteohub,2013-09-27 09:44:00,
2013-09-27 05:46:00,52.7,50.4,30.35,East,90,4.0,4.0,92,0.00,,,0.00,meteohub,2013-09-27 09:46:00,
2013-09-27 05:47:00,52.7,50.4,30.35,East,90,4.0,4.0,92,0.00,,,0.00,meteohub,2013-09-27 09:47:00,
2013-09-27 05:48:00,52.5,50.2,30.35,East,90,4.0,4.0,92,0.00,,,0.00,meteohub,2013-09-27 09:48:00,
2013-09-27 05:49:00,52.5,50.2,30.35,East,90,4.0,4.0,92,0.00,,,0.00,meteohub,2013-09-27 09:49:00,
2013-09-27 05:52:00,52.5,50.2,30.35,East,90,4.0,4.0,92,0.00,,,0.00,meteohub,2013-09-27 09:52:00,
2013-09-27 05:53:00,52.3,50.0,30.35,East,90,4.0,4.0,92,0.00,,,0.00,meteohub,2013-09-27 09:53:00,
2013-09-27 05:54:00,52.3,50.0,30.35,NE,45,4.0,4.0,92,0.00,,,0.00,meteohub,2013-09-27 09:54:00,
2013-09-27 05:55:00,52.3,50.0,30.35,East,90,4.0,4.0,92,0.00,,,0.00,meteohub,2013-09-27 09:55:00,
2013-09-27 05:56:00,52.5,50.2,30.35,East,90,4.0,4.0,92,0.00,,,0.00,meteohub,2013-09-27 09:56:00,
2013-09-27 05:57:00,52.3,50.0,30.35,North,0,5.0,5.0,92,0.00,,,0.00,meteohub,2013-09-27 09:57:00,
2013-09-27 05:58:00,52.3,50.0,30.34,East,90,4.0,4.0,92,0.00,,,0.00,meteohub,2013-09-27 09:58:00,
2013-09-27 05:59:00,52.3,50.0,30.35,East,90,4.0,4.0,92,0.00,,,0.00,meteohub,2013-09-27 09:59:00,
2013-09-27 06:00:00,52.5,50.2,30.34,East,90,4.0,4.0,92,0.00,,,0.00,meteohub,2013-09-27 10:00:00,
2013-09-27 06:02:00,52.3,50.4,30.35,East,90,4.0,5.0,93,0.00,,,0.00,meteohub,2013-09-27 10:02:00,
2013-09-27 06:03:00,52.3,50.4,30.35,East,90,4.0,5.0,93,0.00,,,0.00,meteohub,2013-09-27 10:03:00,
2013-09-27 06:05:00,52.2,50.2,30.34,East,90,4.0,5.0,93,0.00,,,0.00,meteohub,2013-09-27 10:05:00,
2013-09-27 06:07:00,52.3,50.4,30.35,East,90,5.0,5.0,93,0.00,,,0.00,meteohub,2013-09-27 10:07:00,
2013-09-27 06:08:00,52.3,50.4,30.34,East,90,4.0,5.0,93,0.00,,,0.00,meteohub,2013-09-27 10:08:00,
2013-09-27 06:09:00,52.3,50.4,30.34,East,90,3.0,5.0,93,0.00,,,0.00,meteohub,2013-09-27 10:09:00,
2013-09-27 06:10:00,52.3,50.4,30.35,East,90,4.0,5.0,93,0.00,,,0.00,meteohub,2013-09-27 10:10:00,
2013-09-27 06:12:00,52.3,50.4,30.35,East,90,4.0,5.0,93,0.00,,,0.00,meteohub,2013-09-27 10:12:00,
2013-09-27 06:13:00,52.3,50.4,30.35,East,90,4.0,5.0,93,0.00,,,0.00,meteohub,2013-09-27 10:13:00,
2013-09-27 06:14:00,52.2,50.2,30.35,East,90,4.0,5.0,93,0.00,,,0.00,meteohub,2013-09-27 10:14:00,
2013-09-27 06:16:00,52.3,50.4,30.35,East,90,4.0,5.0,93,0.00,,,0.00,meteohub,2013-09-27 10:16:00,
2013-09-27 06:18:00,52.3,50.4,30.34,East,90,4.0,5.0,93,0.00,,,0.00,meteohub,2013-09-27 10:18:00,
2013-09-27 06:19:00,52.2,50.2,30.35,East,90,4.0,5.0,93,0.00,,,0.00,meteohub,2013-09-27 10:19:00,
2013-09-27 06:21:00,52.2,50.2,30.35,East,90,4.0,5.0,93,0.00,,,0.00,meteohub,2013-09-27 10:21:00,
2013-09-27 06:23:00,52.2,50.2,30.35,East,90,3.0,5.0,93,0.00,,,0.00,meteohub,2013-09-27 10:23:00,
2013-09-27 06:25:00,52.2,50.2,30.35,East,90,4.0,5.0,93,0.00,,,0.00,meteohub,2013-09-27 10:25:00,
2013-09-27 06:26:00,52.2,50.2,30.35,East,90,4.0,5.0,93,0.00,,,0.00,meteohub,2013-09-27 10:26:00,
2013-09-27 06:27:00,52.2,50.2,30.35,East,90,4.0,5.0,93,0.00,,,0.00,meteohub,2013-09-27 10:27:00,
2013-09-27 06:28:00,52.2,50.2,30.35,East,90,4.0,5.0,93,0.00,,,0.00,meteohub,2013-09-27 10:28:00,
2013-09-27 06:30:00,52.2,50.2,30.35,East,90,4.0,5.0,93,0.00,,,0.00,meteohub,2013-09-27 10:30:00,
2013-09-27 06:31:00,52.2,50.2,30.35,East,90,4.0,5.0,93,0.00,,,0.00,meteohub,2013-09-27 10:31:00,
2013-09-27 06:32:00,52.2,50.2,30.35,East,90,4.0,5.0,93,0.00,,,0.00,meteohub,2013-09-27 10:32:00,
2013-09-27 06:34:00,52.2,50.2,30.35,East,90,4.0,5.0,93,0.00,,,0.00,meteohub,2013-09-27 10:34:00,
2013-09-27 06:35:00,52.2,50.2,30.35,East,90,4.0,5.0,93,0.00,,,0.00,meteohub,2013-09-27 10:35:00,
2013-09-27 06:37:00,52.3,50.4,30.35,East,90,4.0,5.0,93,0.00,,,0.00,meteohub,2013-09-27 10:37:00,
2013-09-27 06:38:00,52.3,50.4,30.35,East,90,3.0,5.0,93,0.00,,,0.00,meteohub,2013-09-27 10:38:00,
2013-09-27 06:40:00,52.3,50.4,30.35,East,90,5.0,5.0,93,0.00,,,0.00,meteohub,2013-09-27 10:40:00,
2013-09-27 06:41:00,52.2,50.2,30.35,East,90,4.0,4.0,93,0.00,,,0.00,meteohub,2013-09-27 10:41:00,
2013-09-27 06:43:00,52.3,50.4,30.35,NE,45,4.0,4.0,93,0.00,,,0.00,meteohub,2013-09-27 10:43:00,
2013-09-27 06:44:00,52.3,50.4,30.35,NE,45,4.0,4.0,93,0.00,,,0.00,meteohub,2013-09-27 10:44:00,
2013-09-27 06:45:00,52.3,50.4,30.35,East,90,4.0,4.0,93,0.00,,,0.00,meteohub,2013-09-27 10:45:00,
2013-09-27 06:46:00,52.3,50.4,30.35,East,90,4.0,6.0,93,0.00,,,0.00,meteohub,2013-09-27 10:46:00,
2013-09-27 06:49:00,52.3,50.4,30.36,East,90,5.0,6.0,93,0.00,,,0.00,meteohub,2013-09-27 10:49:00,
2013-09-27 06:50:00,52.3,50.4,30.35,East,90,4.0,6.0,93,0.00,,,0.00,meteohub,2013-09-27 10:50:00,
2013-09-27 06:52:00,52.3,50.4,30.36,East,90,4.0,6.0,93,0.00,,,0.00,meteohub,2013-09-27 10:52:00,
2013-09-27 06:54:00,52.3,50.4,30.36,East,90,4.0,6.0,93,0.00,,,0.00,meteohub,2013-09-27 10:54:00,
2013-09-27 06:56:00,52.3,50.4,30.36,East,90,4.0,6.0,93,0.00,,,0.00,meteohub,2013-09-27 10:56:00,
2013-09-27 06:57:00,52.3,50.4,30.36,East,90,4.0,6.0,93,0.00,,,0.00,meteohub,2013-09-27 10:57:00,
2013-09-27 06:59:00,52.3,50.4,30.36,East,90,4.0,6.0,93,0.00,,,0.00,meteohub,2013-09-27 10:59:00,
2013-09-27 07:00:00,52.3,50.4,30.36,East,90,5.0,6.0,93,0.00,,,0.00,meteohub,2013-09-27 11:00:00,
2013-09-27 07:02:00,52.3,50.4,30.36,East,90,4.0,6.0,93,0.00,,,0.00,meteohub,2013-09-27 11:02:00,
2013-09-27 07:03:00,52.3,50.4,30.36,East,90,4.0,6.0,93,0.00,,,0.00,meteohub,2013-09-27 11:03:00,
2013-09-27 07:04:00,52.3,50.4,30.36,East,90,4.0,6.0,93,0.00,,,0.00,meteohub,2013-09-27 11:04:00,
2013-09-27 07:05:00,52.3,50.4,30.36,East,90,4.0,6.0,93,0.00,,,0.00,meteohub,2013-09-27 11:05:00,
2013-09-27 07:07:00,52.3,50.4,30.36,East,90,4.0,6.0,93,0.00,,,0.00,meteohub,2013-09-27 11:07:00,
2013-09-27 07:08:00,52.3,50.4,30.36,East,90,3.0,6.0,93,0.00,,,0.00,meteohub,2013-09-27 11:08:00,
2013-09-27 07:10:00,52.3,50.4,30.36,East,90,5.0,6.0,93,0.00,,,0.00,meteohub,2013-09-27 11:10:00,
2013-09-27 07:11:00,52.3,50.4,30.36,East,90,4.0,7.0,93,0.00,,,0.00,meteohub,2013-09-27 11:11:00,
2013-09-27 07:12:00,52.3,50.4,30.36,East,90,4.0,7.0,93,0.00,,,0.00,meteohub,2013-09-27 11:12:00,
2013-09-27 07:13:00,52.3,50.4,30.37,East,90,4.0,7.0,93,0.00,,,0.00,meteohub,2013-09-27 11:13:00,
2013-09-27 07:14:00,52.3,50.4,30.37,East,90,4.0,7.0,93,0.00,,,0.00,meteohub,2013-09-27 11:14:00,
2013-09-27 07:16:00,52.3,50.4,30.37,East,90,4.0,7.0,93,0.00,,,0.00,meteohub,2013-09-27 11:16:00,
2013-09-27 07:18:00,52.5,50.5,30.37,East,90,4.0,7.0,93,0.00,,,0.00,meteohub,2013-09-27 11:18:00,
2013-09-27 07:19:00,52.3,50.4,30.37,East,90,4.0,7.0,93,0.00,,,0.00,meteohub,2013-09-27 11:19:00,
2013-09-27 07:20:00,52.3,50.4,30.37,NE,45,4.0,7.0,93,0.00,,,0.00,meteohub,2013-09-27 11:20:00,
2013-09-27 07:21:00,52.3,50.4,30.36,East,90,4.0,7.0,93,0.00,,,0.00,meteohub,2013-09-27 11:21:00,
2013-09-27 07:23:00,52.3,50.4,30.37,East,90,4.0,7.0,93,0.00,,,0.00,meteohub,2013-09-27 11:23:00,
2013-09-27 07:24:00,52.5,50.5,30.37,East,90,5.0,7.0,93,0.00,,,0.00,meteohub,2013-09-27 11:24:00,
2013-09-27 07:28:00,52.3,50.4,30.37,NE,45,4.0,5.0,93,0.00,,,0.00,meteohub,2013-09-27 11:28:00,
2013-09-27 07:29:00,52.3,50.4,30.37,East,90,4.0,5.0,93,0.00,,,0.00,meteohub,2013-09-27 11:29:00,
2013-09-27 07:30:00,52.3,50.4,30.37,East,90,4.0,5.0,93,0.00,,,0.00,meteohub,2013-09-27 11:30:00,
2013-09-27 07:31:00,52.3,50.4,30.37,East,90,4.0,5.0,93,0.00,,,0.00,meteohub,2013-09-27 11:31:00,
2013-09-27 07:34:00,52.3,50.4,30.37,East,90,4.0,5.0,93,0.00,,,0.00,meteohub,2013-09-27 11:34:00,
2013-09-27 07:35:00,52.3,50.4,30.37,East,90,4.0,6.0,93,0.00,,,0.00,meteohub,2013-09-27 11:35:00,
2013-09-27 07:36:00,52.3,50.4,30.37,East,90,4.0,6.0,93,0.00,,,0.00,meteohub,2013-09-27 11:36:00,
2013-09-27 07:39:00,52.3,50.4,30.37,East,90,3.0,6.0,93,0.00,,,0.00,meteohub,2013-09-27 11:39:00,
2013-09-27 07:41:00,52.3,50.4,30.37,East,90,4.0,6.0,93,0.00,,,0.00,meteohub,2013-09-27 11:41:00,
2013-09-27 07:43:00,52.3,50.4,30.38,East,90,4.0,6.0,93,0.00,,,0.00,meteohub,2013-09-27 11:43:00,
2013-09-27 07:44:00,52.3,50.4,30.38,East,90,4.0,6.0,93,0.00,,,0.00,meteohub,2013-09-27 11:44:00,
2013-09-27 07:47:00,52.3,50.4,30.38,East,90,4.0,5.0,93,0.00,,,0.00,meteohub,2013-09-27 11:47:00,
2013-09-27 07:48:00,52.5,50.5,30.38,East,90,4.0,5.0,93,0.00,,,0.00,meteohub,2013-09-27 11:48:00,
2013-09-27 07:49:00,52.3,50.4,30.38,East,90,4.0,5.0,93,0.00,,,0.00,meteohub,2013-09-27 11:49:00,
2013-09-27 07:52:00,52.5,50.5,30.38,East,90,4.0,5.0,93,0.00,,,0.00,meteohub,2013-09-27 11:52:00,
2013-09-27 07:53:00,52.5,50.5,30.38,East,90,4.0,5.0,93,0.00,,,0.00,meteohub,2013-09-27 11:53:00,
2013-09-27 07:54:00,52.5,50.5,30.38,NE,45,4.0,5.0,93,0.00,,,0.00,meteohub,2013-09-27 11:54:00,
2013-09-27 07:55:00,52.5,50.5,30.38,East,90,4.0,4.0,93,0.00,,,0.00,meteohub,2013-09-27 11:55:00,
2013-09-27 07:57:00,52.5,50.5,30.38,East,90,4.0,4.0,93,0.00,,,0.00,meteohub,2013-09-27 11:57:00,
2013-09-27 07:58:00,52.5,50.5,30.38,East,90,4.0,4.0,93,0.00,,,0.00,meteohub,2013-09-27 11:58:00,
2013-09-27 07:59:00,52.7,50.7,30.38,East,90,4.0,4.0,93,0.00,,,0.00,meteohub,2013-09-27 11:59:00,
2013-09-27 08:01:00,52.7,50.7,30.38,East,90,4.0,4.0,93,0.00,,,0.00,meteohub,2013-09-27 12:01:00,
2013-09-27 08:03:00,52.9,50.9,30.38,East,90,6.0,6.0,93,0.00,,,0.00,meteohub,2013-09-27 12:03:00,
2013-09-27 08:06:00,53.1,50.7,30.38,East,90,4.0,6.0,92,0.00,,,0.00,meteohub,2013-09-27 12:06:00,
2013-09-27 08:07:00,53.1,50.7,30.38,East,90,4.0,6.0,92,0.00,,,0.00,meteohub,2013-09-27 12:07:00,
2013-09-27 08:08:00,53.1,50.7,30.38,East,90,4.0,6.0,92,0.00,,,0.00,meteohub,2013-09-27 12:08:00,
2013-09-27 08:09:00,53.1,50.7,30.38,East,90,6.0,6.0,92,0.00,,,0.00,meteohub,2013-09-27 12:09:00,
2013-09-27 08:12:00,53.2,50.9,30.38,East,90,4.0,6.0,92,0.00,,,0.00,meteohub,2013-09-27 12:12:00,
2013-09-27 08:13:00,53.2,50.9,30.38,East,90,4.0,6.0,92,0.00,,,0.00,meteohub,2013-09-27 12:13:00,
2013-09-27 08:14:00,53.2,50.9,30.38,East,90,4.0,6.0,92,0.00,,,0.00,meteohub,2013-09-27 12:14:00,
2013-09-27 08:18:00,53.2,50.9,30.38,East,90,3.0,6.0,92,0.00,,,0.00,meteohub,2013-09-27 12:18:00,
2013-09-27 08:19:00,53.2,50.7,30.38,East,90,4.0,6.0,91,0.00,,,0.00,meteohub,2013-09-27 12:19:00,
2013-09-27 08:20:00,53.2,50.7,30.38,East,90,4.0,6.0,91,0.00,,,0.00,meteohub,2013-09-27 12:20:00,
2013-09-27 08:21:00,53.2,50.7,30.39,SE,135,3.0,6.0,91,0.00,,,0.00,meteohub,2013-09-27 12:21:00,
2013-09-27 08:23:00,53.4,50.9,30.38,East,90,3.0,6.0,91,0.00,,,0.00,meteohub,2013-09-27 12:23:00,
2013-09-27 08:25:00,53.4,50.9,30.38,East,90,4.0,6.0,91,0.00,,,0.00,meteohub,2013-09-27 12:25:00,
2013-09-27 08:26:00,53.4,51.1,30.38,East,90,4.0,5.0,92,0.00,,,0.00,meteohub,2013-09-27 12:26:00,
2013-09-27 08:27:00,53.4,51.1,30.38,East,90,4.0,5.0,92,0.00,,,0.00,meteohub,2013-09-27 12:27:00,
2013-09-27 08:28:00,53.4,50.9,30.38,East,90,3.0,5.0,91,0.00,,,0.00,meteohub,2013-09-27 12:28:00,
2013-09-27 08:30:00,53.4,51.1,30.38,East,90,4.0,4.0,92,0.00,,,0.00,meteohub,2013-09-27 12:30:00,
2013-09-27 08:31:00,53.4,51.1,30.39,East,90,4.0,4.0,92,0.00,,,0.00,meteohub,2013-09-27 12:31:00,
2013-09-27 08:32:00,53.4,51.1,30.38,East,90,4.0,4.0,92,0.00,,,0.00,meteohub,2013-09-27 12:32:00,
2013-09-27 08:34:00,53.6,51.1,30.39,East,90,4.0,4.0,91,0.00,,,0.00,meteohub,2013-09-27 12:34:00,
2013-09-27 08:37:00,53.6,51.1,30.39,East,90,4.0,4.0,91,0.00,,,0.00,meteohub,2013-09-27 12:37:00,
2013-09-27 08:38:00,53.6,51.1,30.39,East,90,3.0,4.0,91,0.00,,,0.00,meteohub,2013-09-27 12:38:00,
2013-09-27 08:40:00,53.6,51.1,30.39,East,90,4.0,4.0,91,0.00,,,0.00,meteohub,2013-09-27 12:40:00,
2013-09-27 08:42:00,53.8,51.3,30.39,East,90,4.0,8.0,91,0.00,,,0.00,meteohub,2013-09-27 12:42:00,
2013-09-27 08:43:00,53.8,51.3,30.39,East,90,4.0,8.0,91,0.00,,,0.00,meteohub,2013-09-27 12:43:00,
2013-09-27 08:44:00,53.8,51.3,30.39,SE,135,4.0,8.0,91,0.00,,,0.00,meteohub,2013-09-27 12:44:00,
2013-09-27 08:46:00,53.8,51.3,30.39,East,90,4.0,8.0,91,0.00,,,0.00,meteohub,2013-09-27 12:46:00,
2013-09-27 08:48:00,53.8,51.3,30.39,East,90,4.0,8.0,91,0.00,,,0.00,meteohub,2013-09-27 12:48:00,
2013-09-27 08:49:00,53.8,51.3,30.39,East,90,4.0,8.0,91,0.00,,,0.00,meteohub,2013-09-27 12:49:00,
2013-09-27 08:50:00,53.8,51.3,30.39,East,90,4.0,8.0,91,0.00,,,0.00,meteohub,2013-09-27 12:50:00,
2013-09-27 08:51:00,53.8,51.3,30.39,East,90,4.0,8.0,91,0.00,,,0.00,meteohub,2013-09-27 12:51:00,
2013-09-27 08:53:00,53.8,51.3,30.39,East,90,4.0,8.0,91,0.00,,,0.00,meteohub,2013-09-27 12:53:00,
2013-09-27 08:55:00,53.8,51.3,30.39,East,90,4.0,8.0,91,0.00,,,0.00,meteohub,2013-09-27 12:55:00,
2013-09-27 08:56:00,54.0,51.4,30.39,North,0,4.0,4.0,91,0.00,,,0.00,meteohub,2013-09-27 12:56:00,
2013-09-27 08:57:00,53.8,51.3,30.39,East,90,3.0,4.0,91,0.00,,,0.00,meteohub,2013-09-27 12:57:00,
2013-09-27 08:59:00,54.0,51.4,30.40,East,90,3.0,4.0,91,0.00,,,0.00,meteohub,2013-09-27 12:59:00,
2013-09-27 09:00:00,54.0,51.4,30.39,East,90,3.0,4.0,91,0.00,,,0.00,meteohub,2013-09-27 13:00:00,
2013-09-27 09:02:00,54.1,51.6,30.39,SE,135,3.0,4.0,91,0.00,,,0.00,meteohub,2013-09-27 13:02:00,
2013-09-27 09:03:00,54.1,51.6,30.39,East,90,3.0,4.0,91,0.00,,,0.00,meteohub,2013-09-27 13:03:00,
2013-09-27 09:04:00,54.1,51.6,30.39,SE,135,4.0,4.0,91,0.00,,,0.00,meteohub,2013-09-27 13:04:00,
2013-09-27 09:06:00,54.3,51.4,30.39,East,90,3.0,4.0,90,0.00,,,0.00,meteohub,2013-09-27 13:06:00,
2013-09-27 09:07:00,54.3,51.8,30.40,East,90,3.0,4.0,91,0.00,,,0.00,meteohub,2013-09-27 13:07:00,
2013-09-27 09:10:00,54.7,51.8,30.39,East,90,6.0,6.0,90,0.00,,,0.00,meteohub,2013-09-27 13:10:00,
2013-09-27 09:11:00,54.7,51.8,30.40,East,90,2.0,4.0,90,0.00,,,0.00,meteohub,2013-09-27 13:11:00,
2013-09-27 09:12:00,54.7,51.8,30.40,East,90,3.0,4.0,90,0.00,,,0.00,meteohub,2013-09-27 13:12:00,
2013-09-27 09:15:00,54.9,52.0,30.39,East,90,4.0,6.0,90,0.00,,,0.00,meteohub,2013-09-27 13:15:00,
2013-09-27 09:16:00,54.9,52.0,30.40,East,90,4.0,6.0,90,0.00,,,0.00,meteohub,2013-09-27 13:16:00,
2013-09-27 09:17:00,55.0,51.8,30.40,ESE,113,3.0,6.0,89,0.00,,,0.00,meteohub,2013-09-27 13:17:00,
2013-09-27 09:19:00,55.0,51.8,30.40,East,90,4.0,6.0,89,0.00,,,0.00,meteohub,2013-09-27 13:19:00,
2013-09-27 09:21:00,55.2,52.0,30.40,WSW,248,4.0,6.0,89,0.00,,,0.00,meteohub,2013-09-27 13:21:00,
2013-09-27 09:22:00,55.2,52.0,30.40,WSW,248,4.0,6.0,89,0.00,,,0.00,meteohub,2013-09-27 13:22:00,
2013-09-27 09:25:00,55.4,52.2,30.40,East,90,3.0,6.0,89,0.00,,,0.00,meteohub,2013-09-27 13:25:00,
2013-09-27 09:26:00,55.4,52.2,30.40,NE,45,3.0,4.0,89,0.00,,,0.00,meteohub,2013-09-27 13:26:00,
2013-09-27 09:27:00,55.4,52.2,30.40,NE,45,3.0,4.0,89,0.00,,,0.00,meteohub,2013-09-27 13:27:00,
2013-09-27 09:30:00,55.6,52.3,30.40,NE,45,4.0,4.0,89,0.00,,,0.00,meteohub,2013-09-27 13:30:00,
2013-09-27 09:31:00,55.8,52.5,30.40,NE,45,4.0,4.0,89,0.00,,,0.00,meteohub,2013-09-27 13:31:00,
2013-09-27 09:32:00,55.8,52.5,30.40,NE,45,4.0,4.0,89,0.00,,,0.00,meteohub,2013-09-27 13:32:00,
2013-09-27 09:33:00,55.9,52.7,30.40,East,90,2.0,4.0,89,0.00,,,0.00,meteohub,2013-09-27 13:33:00,
2013-09-27 09:36:00,56.3,52.9,30.40,SE,135,4.0,4.0,88,0.00,,,0.00,meteohub,2013-09-27 13:36:00,
2013-09-27 09:37:00,56.3,52.5,30.39,East,90,4.0,4.0,87,0.00,,,0.00,meteohub,2013-09-27 13:37:00,
2013-09-27 09:38:00,56.5,52.7,30.39,East,90,4.0,4.0,87,0.00,,,0.00,meteohub,2013-09-27 13:38:00,
2013-09-27 09:42:00,56.8,53.1,30.39,East,90,4.0,4.0,87,0.00,,,0.00,meteohub,2013-09-27 13:42:00,
2013-09-27 09:44:00,56.8,53.1,30.40,SE,135,4.0,4.0,87,0.00,,,0.00,meteohub,2013-09-27 13:44:00,
2013-09-27 09:45:00,57.0,52.9,30.39,East,90,4.0,7.0,86,0.00,,,0.00,meteohub,2013-09-27 13:45:00,
2013-09-27 09:47:00,57.2,53.1,30.40,East,90,4.0,7.0,86,0.00,,,0.00,meteohub,2013-09-27 13:47:00,
2013-09-27 09:49:00,57.4,52.9,30.39,NE,45,4.0,7.0,85,0.00,,,0.00,meteohub,2013-09-27 13:49:00,
2013-09-27 09:52:00,58.1,53.2,30.39,East,90,6.0,7.0,84,0.00,,,0.00,meteohub,2013-09-27 13:52:00,
2013-09-27 09:53:00,58.8,53.6,30.40,South,180,3.0,7.0,83,0.00,,,0.00,meteohub,2013-09-27 13:53:00,
2013-09-27 09:54:00,59.0,53.6,30.39,East,90,4.0,7.0,82,0.00,,,0.00,meteohub,2013-09-27 13:54:00,
2013-09-27 09:55:00,59.4,53.8,30.39,SE,135,3.0,8.0,82,0.00,,,0.00,meteohub,2013-09-27 13:55:00,
2013-09-27 09:57:00,59.7,54.0,30.40,NE,45,2.0,8.0,81,0.00,,,0.00,meteohub,2013-09-27 13:57:00,
2013-09-27 09:59:00,60.6,54.5,30.39,East,90,4.0,8.0,80,0.00,,,0.00,meteohub,2013-09-27 13:59:00,
2013-09-27 10:00:00,60.8,54.3,30.39,East,90,3.0,8.0,79,0.00,,,0.00,meteohub,2013-09-27 14:00:00,
2013-09-27 10:01:00,60.8,54.3,30.39,East,90,3.0,8.0,79,0.00,,,0.00,meteohub,2013-09-27 14:01:00,
2013-09-27 10:03:00,61.5,54.7,30.39,East,90,4.0,8.0,78,0.00,,,0.00,meteohub,2013-09-27 14:03:00,
2013-09-27 10:04:00,61.5,54.3,30.40,East,90,4.0,8.0,77,0.00,,,0.00,meteohub,2013-09-27 14:04:00,
2013-09-27 10:05:00,61.7,54.5,30.40,East,90,3.0,8.0,77,0.00,,,0.00,meteohub,2013-09-27 14:05:00,
2013-09-27 10:07:00,61.9,54.3,30.40,East,90,6.0,8.0,76,0.00,,,0.00,meteohub,2013-09-27 14:07:00,
2013-09-27 10:08:00,62.1,54.3,30.40,East,90,2.0,8.0,76,0.00,,,0.00,meteohub,2013-09-27 14:08:00,
2013-09-27 10:09:00,62.4,55.0,30.40,East,90,2.0,8.0,77,0.00,,,0.00,meteohub,2013-09-27 14:09:00,
2013-09-27 10:10:00,62.6,54.9,30.40,SE,135,2.0,6.0,76,0.00,,,0.00,meteohub,2013-09-27 14:10:00,
2013-09-27 10:12:00,63.0,55.2,30.40,East,90,4.0,6.0,76,0.00,,,0.00,meteohub,2013-09-27 14:12:00,
2013-09-27 10:15:00,63.3,55.2,30.40,SE,135,3.0,6.0,75,0.00,,,0.00,meteohub,2013-09-27 14:15:00,
2013-09-27 10:17:00,64.0,55.6,30.40,SSE,158,3.0,6.0,74,0.00,,,0.00,meteohub,2013-09-27 14:17:00,
2013-09-27 10:18:00,64.2,55.8,30.40,SE,135,2.0,6.0,74,0.00,,,0.00,meteohub,2013-09-27 14:18:00,
2013-09-27 10:20:00,64.8,55.2,30.40,NE,45,2.0,6.0,71,0.00,,,0.00,meteohub,2013-09-27 14:20:00,
2013-09-27 10:22:00,64.8,55.2,30.40,East,90,3.0,6.0,71,0.00,,,0.00,meteohub,2013-09-27 14:22:00,
2013-09-27 10:23:00,64.9,55.4,30.40,NE,45,3.0,6.0,71,0.00,,,0.00,meteohub,2013-09-27 14:23:00,
2013-09-27 10:26:00,65.3,55.2,30.40,East,90,4.0,5.0,70,0.00,,,0.00,meteohub,2013-09-27 14:26:00,
2013-09-27 10:27:00,65.3,55.2,30.40,SE,135,2.0,5.0,70,0.00,,,0.00,meteohub,2013-09-27 14:27:00,
2013-09-27 10:29:00,65.5,55.4,30.40,WSW,248,4.0,5.0,70,0.00,,,0.00,meteohub,2013-09-27 14:29:00,
2013-09-27 10:31:00,65.3,54.5,30.40,North,0,2.0,5.0,68,0.00,,,0.00,meteohub,2013-09-27 14:31:00,
2013-09-27 10:32:00,65.3,54.9,30.40,East,90,3.0,5.0,69,0.00,,,0.00,meteohub,2013-09-27 14:32:00,
2013-09-27 10:34:00,65.3,54.5,30.40,NW,315,3.0,5.0,68,0.00,,,0.00,meteohub,2013-09-27 14:34:00,
2013-09-27 10:37:00,65.3,54.9,30.40,WSW,248,1.0,6.0,69,0.00,,,0.00,meteohub,2013-09-27 14:37:00,
2013-09-27 10:38:00,65.7,55.2,30.40,NW,315,3.0,6.0,69,0.00,,,0.00,meteohub,2013-09-27 14:38:00,
2013-09-27 10:39:00,65.7,55.2,30.41,East,90,2.0,6.0,69,0.00,,,0.00,meteohub,2013-09-27 14:39:00,
2013-09-27 10:41:00,65.8,55.4,30.40,East,90,2.0,6.0,69,0.00,,,0.00,meteohub,2013-09-27 14:41:00,
2013-09-27 10:42:00,65.8,55.4,30.40,East,90,2.0,6.0,69,0.00,,,0.00,meteohub,2013-09-27 14:42:00,
2013-09-27 10:44:00,66.4,55.0,30.40,East,90,2.0,6.0,67,0.00,,,0.00,meteohub,2013-09-27 14:44:00,
2013-09-27 10:47:00,66.6,55.2,30.40,East,90,2.0,6.0,67,0.00,,,0.00,meteohub,2013-09-27 14:47:00,
2013-09-27 10:52:00,66.6,55.6,30.40,South,180,2.0,3.0,68,0.00,,,0.00,meteohub,2013-09-27 14:52:00,
2013-09-27 10:53:00,66.4,55.0,30.40,SSW,203,4.0,4.0,67,0.00,,,0.00,meteohub,2013-09-27 14:53:00,
2013-09-27 10:54:00,66.2,55.4,30.41,North,0,4.0,4.0,68,0.00,,,0.00,meteohub,2013-09-27 14:54:00,
2013-09-27 10:58:00,66.9,56.5,30.40,East,90,2.0,3.0,69,0.00,,,0.00,meteohub,2013-09-27 14:58:00,
2013-09-27 10:59:00,67.1,56.1,30.40,East,90,3.0,3.0,68,0.00,,,0.00,meteohub,2013-09-27 14:59:00,
2013-09-27 11:00:00,67.5,56.1,30.40,East,90,5.0,5.0,67,0.00,,,0.00,meteohub,2013-09-27 15:00:00,
2013-09-27 11:01:00,67.5,56.5,30.40,SE,135,4.0,4.0,68,0.00,,,0.00,meteohub,2013-09-27 15:01:00,
2013-09-27 11:03:00,67.8,56.5,30.41,South,180,3.0,4.0,67,0.00,,,0.00,meteohub,2013-09-27 15:03:00,
2013-09-27 11:04:00,67.8,56.5,30.41,South,180,3.0,4.0,67,0.00,,,0.00,meteohub,2013-09-27 15:04:00,
2013-09-27 11:06:00,68.2,56.8,30.41,North,0,2.0,5.0,67,0.00,,,0.00,meteohub,2013-09-27 15:06:00,
2013-09-27 11:09:00,68.5,56.3,30.41,NE,45,4.0,5.0,65,0.00,,,0.00,meteohub,2013-09-27 15:09:00,
2013-09-27 11:10:00,68.5,56.7,30.41,NE,45,4.0,5.0,66,0.00,,,0.00,meteohub,2013-09-27 15:10:00,
2013-09-27 11:11:00,68.5,56.7,30.41,North,0,2.0,5.0,66,0.00,,,0.00,meteohub,2013-09-27 15:11:00,
2013-09-27 11:14:00,68.9,57.0,30.41,East,90,2.0,5.0,66,0.00,,,0.00,meteohub,2013-09-27 15:14:00,
2013-09-27 11:15:00,68.9,57.0,30.41,East,90,2.0,5.0,66,0.00,,,0.00,meteohub,2013-09-27 15:15:00,
2013-09-27 11:16:00,68.9,57.0,30.41,East,90,2.0,5.0,66,0.00,,,0.00,meteohub,2013-09-27 15:16:00,
2013-09-27 11:17:00,69.4,57.6,30.40,NE,45,2.0,5.0,66,0.00,,,0.00,meteohub,2013-09-27 15:17:00,
2013-09-27 11:20:00,69.8,57.0,30.40,NE,45,1.0,5.0,64,0.00,,,0.00,meteohub,2013-09-27 15:20:00,
2013-09-27 11:21:00,69.8,57.0,30.40,NE,45,1.0,5.0,64,0.00,,,0.00,meteohub,2013-09-27 15:21:00,
2013-09-27 11:22:00,70.0,57.2,30.40,North,0,3.0,5.0,64,0.00,,,0.00,meteohub,2013-09-27 15:22:00,
2013-09-27 11:23:00,70.0,55.9,30.40,NW,315,5.0,5.0,61,0.00,,,0.00,meteohub,2013-09-27 15:23:00,
2013-09-27 11:26:00,70.2,55.6,30.40,West,270,3.0,5.0,60,0.00,,,0.00,meteohub,2013-09-27 15:26:00,
2013-09-27 11:27:00,70.3,56.7,30.40,East,90,2.0,5.0,62,0.00,,,0.00,meteohub,2013-09-27 15:27:00,
2013-09-27 11:28:00,70.2,56.1,30.41,NE,45,8.0,8.0,61,0.00,,,0.00,meteohub,2013-09-27 15:28:00,
2013-09-27 11:31:00,70.0,55.4,30.41,SE,135,5.0,8.0,60,0.00,,,0.00,meteohub,2013-09-27 15:31:00,
2013-09-27 11:32:00,69.8,54.9,30.40,NE,45,5.0,8.0,59,0.00,,,0.00,meteohub,2013-09-27 15:32:00,
2013-09-27 11:33:00,69.6,54.7,30.40,NE,45,4.0,8.0,59,0.00,,,0.00,meteohub,2013-09-27 15:33:00,
2013-09-27 11:34:00,69.4,54.9,30.40,ESE,113,5.0,8.0,60,0.00,,,0.00,meteohub,2013-09-27 15:34:00,
2013-09-27 11:37:00,69.6,55.6,30.41,NE,45,3.0,8.0,61,0.00,,,0.00,meteohub,2013-09-27 15:37:00,
2013-09-27 11:38:00,69.6,56.5,30.41,East,90,5.0,8.0,63,0.00,,,0.00,meteohub,2013-09-27 15:38:00,
2013-09-27 11:39:00,69.6,55.6,30.41,NE,45,3.0,8.0,61,0.00,,,0.00,meteohub,2013-09-27 15:39:00,
2013-09-27 11:40:00,69.6,55.6,30.41,SE,135,4.0,8.0,61,0.00,,,0.00,meteohub,2013-09-27 15:40:00,
2013-09-27 11:43:00,69.8,54.9,30.41,NE,45,4.0,8.0,59,0.00,,,0.00,meteohub,2013-09-27 15:43:00,
2013-09-27 11:44:00,69.8,54.9,30.41,North,0,3.0,8.0,59,0.00,,,0.00,meteohub,2013-09-27 15:44:00,
2013-09-27 11:47:00,70.3,55.4,30.41,East,90,2.0,5.0,59,0.00,,,0.00,meteohub,2013-09-27 15:47:00,
2013-09-27 11:48:00,70.7,54.7,30.41,NE,45,4.0,5.0,57,0.00,,,0.00,meteohub,2013-09-27 15:48:00,
2013-09-27 11:49:00,70.7,54.7,30.41,NE,45,4.0,5.0,57,0.00,,,0.00,meteohub,2013-09-27 15:49:00,
2013-09-27 11:50:00,70.9,54.9,30.40,East,90,2.0,5.0,57,0.00,,,0.00,meteohub,2013-09-27 15:50:00,
2013-09-27 11:54:00,71.1,54.5,30.41,NE,45,4.0,5.0,56,0.00,,,0.00,meteohub,2013-09-27 15:54:00,
2013-09-27 11:55:00,70.9,54.0,30.41,NE,45,7.0,7.0,55,0.00,,,0.00,meteohub,2013-09-27 15:55:00,
2013-09-27 11:59:00,70.7,53.8,30.41,NE,45,4.0,5.0,55,0.00,,,0.00,meteohub,2013-09-27 15:59:00,
2013-09-27 12:01:00,70.5,52.5,30.41,North,0,5.0,7.0,53,0.00,,,0.00,meteohub,2013-09-27 16:01:00,
2013-09-27 12:04:00,71.1,53.1,30.41,West,270,4.0,7.0,53,0.00,,,0.00,meteohub,2013-09-27 16:04:00,
2013-09-27 12:05:00,71.1,54.1,30.41,South,180,3.0,7.0,55,0.00,,,0.00,meteohub,2013-09-27 16:05:00,
2013-09-27 12:07:00,70.9,54.0,30.41,East,90,2.0,7.0,55,0.00,,,0.00,meteohub,2013-09-27 16:07:00,
2013-09-27 12:08:00,70.5,54.1,30.41,East,90,2.0,7.0,56,0.00,,,0.00,meteohub,2013-09-27 16:08:00,
2013-09-27 12:09:00,70.2,54.1,30.41,South,180,1.0,7.0,57,0.00,,,0.00,meteohub,2013-09-27 16:09:00,
2013-09-27 12:10:00,70.2,54.1,30.41,South,180,1.0,7.0,57,0.00,,,0.00,meteohub,2013-09-27 16:10:00,
2013-09-27 12:13:00,69.6,54.7,30.41,South,180,0.0,7.0,59,0.00,,,0.00,meteohub,2013-09-27 16:13:00,
2013-09-27 12:15:00,69.4,54.5,30.41,WSW,248,2.0,7.0,59,0.00,,,0.00,meteohub,2013-09-27 16:15:00,
2013-09-27 12:16:00,69.4,54.5,30.40,WSW,248,2.0,5.0,59,0.00,,,0.00,meteohub,2013-09-27 16:16:00,
2013-09-27 12:18:00,70.0,54.0,30.41,SE,135,2.0,5.0,57,0.00,,,0.00,meteohub,2013-09-27 16:18:00,
2013-09-27 12:20:00,70.2,53.2,30.40,NE,45,4.0,5.0,55,0.00,,,0.00,meteohub,2013-09-27 16:20:00,
2013-09-27 12:21:00,70.0,53.1,30.41,East,90,4.0,4.0,55,0.00,,,0.00,meteohub,2013-09-27 16:21:00,
2013-09-27 12:22:00,69.8,54.0,30.41,East,90,2.0,3.0,57,0.00,,,0.00,meteohub,2013-09-27 16:22:00,
2013-09-27 12:24:00,69.1,53.2,30.41,NE,45,2.0,3.0,57,0.00,,,0.00,meteohub,2013-09-27 16:24:00,
2013-09-27 12:26:00,68.4,52.5,30.41,East,90,2.0,4.0,57,0.00,,,0.00,meteohub,2013-09-27 16:26:00,
2013-09-27 12:27:00,68.4,52.5,30.41,East,90,2.0,4.0,57,0.00,,,0.00,meteohub,2013-09-27 16:27:00,
2013-09-27 12:29:00,68.0,55.4,30.41,East,90,0.0,4.0,64,0.00,,,0.00,meteohub,2013-09-27 16:29:00,
2013-09-27 12:32:00,67.5,55.2,30.41,SE,135,0.0,4.0,65,0.00,,,0.00,meteohub,2013-09-27 16:32:00,
2013-09-27 12:33:00,67.3,55.0,30.41,SE,135,0.0,4.0,65,0.00,,,0.00,meteohub,2013-09-27 16:33:00,
2013-09-27 12:34:00,67.1,55.4,30.41,East,90,0.0,4.0,66,0.00,,,0.00,meteohub,2013-09-27 16:34:00,
2013-09-27 12:35:00,67.1,55.4,30.41,East,90,0.0,4.0,66,0.00,,,0.00,meteohub,2013-09-27 16:35:00,
2013-09-27 12:37:00,67.1,55.4,30.41,North,0,0.0,4.0,66,0.00,,,0.00,meteohub,2013-09-27 16:37:00,
2013-09-27 12:38:00,67.1,55.4,30.40,North,0,0.0,4.0,66,0.00,,,0.00,meteohub,2013-09-27 16:38:00,
2013-09-27 12:39:00,67.1,54.9,30.41,North,0,0.0,4.0,65,0.00,,,0.00,meteohub,2013-09-27 16:39:00,
2013-09-27 12:40:00,67.3,55.6,30.41,WSW,248,0.0,2.0,66,0.00,,,0.00,meteohub,2013-09-27 16:40:00,
2013-09-27 12:42:00,67.3,55.6,30.41,WSW,248,0.0,2.0,66,0.00,,,0.00,meteohub,2013-09-27 16:42:00,
2013-09-27 12:44:00,67.3,55.0,30.41,WSW,248,0.0,2.0,65,0.00,,,0.00,meteohub,2013-09-27 16:44:00,
2013-09-27 12:45:00,67.3,54.7,30.41,WSW,248,0.0,2.0,64,0.00,,,0.00,meteohub,2013-09-27 16:45:00,
2013-09-27 12:46:00,67.3,54.7,30.41,WSW,248,0.0,2.0,64,0.00,,,0.00,meteohub,2013-09-27 16:46:00,
2013-09-27 12:50:00,68.0,54.0,30.40,WSW,248,2.0,2.0,61,0.00,,,0.00,meteohub,2013-09-27 16:50:00,
2013-09-27 12:51:00,68.2,53.8,30.41,South,180,2.0,2.0,60,0.00,,,0.00,meteohub,2013-09-27 16:51:00,
2013-09-27 12:52:00,68.4,54.3,30.40,South,180,2.0,2.0,61,0.00,,,0.00,meteohub,2013-09-27 16:52:00,
2013-09-27 12:55:00,69.6,54.1,30.40,SE,135,1.0,1.0,58,0.00,,,0.00,meteohub,2013-09-27 16:55:00,
2013-09-27 12:56:00,70.0,53.6,30.40,NE,45,1.0,2.0,56,0.00,,,0.00,meteohub,2013-09-27 16:56:00,
2013-09-27 12:57:00,70.5,54.1,30.40,WSW,248,2.0,2.0,56,0.00,,,0.00,meteohub,2013-09-27 16:57:00,
2013-09-27 13:00:00,71.8,55.8,30.40,NE,45,2.0,2.0,57,0.00,,,0.00,meteohub,2013-09-27 17:00:00,
2013-09-27 13:02:00,72.3,53.2,30.40,North,0,2.0,2.0,51,0.00,,,0.00,meteohub,2013-09-27 17:02:00,
2013-09-27 13:03:00,72.7,53.4,30.40,South,180,3.0,3.0,51,0.00,,,0.00,meteohub,2013-09-27 17:03:00,
2013-09-27 13:06:00,72.5,54.3,30.40,South,180,3.0,3.0,53,0.00,,,0.00,meteohub,2013-09-27 17:06:00,
2013-09-27 13:07:00,72.1,53.6,30.40,South,180,2.0,3.0,52,0.00,,,0.00,meteohub,2013-09-27 17:07:00,
2013-09-27 13:08:00,72.1,53.6,30.40,SE,135,2.0,3.0,52,0.00,,,0.00,meteohub,2013-09-27 17:08:00,
2013-09-27 13:09:00,72.0,54.0,30.40,South,180,1.0,3.0,53,0.00,,,0.00,meteohub,2013-09-27 17:09:00,
2013-09-27 13:12:00,71.6,54.1,30.40,East,90,2.0,4.0,54,0.00,,,0.00,meteohub,2013-09-27 17:12:00,
2013-09-27 13:13:00,71.2,53.8,30.40,SE,135,0.0,4.0,54,0.00,,,0.00,meteohub,2013-09-27 17:13:00,
2013-09-27 13:14:00,71.2,53.8,30.40,SE,135,0.0,4.0,54,0.00,,,0.00,meteohub,2013-09-27 17:14:00,
2013-09-27 13:15:00,71.2,53.8,30.40,South,180,0.0,4.0,54,0.00,,,0.00,meteohub,2013-09-27 17:15:00,
2013-09-27 13:18:00,71.2,53.8,30.40,South,180,0.0,4.0,54,0.00,,,0.00,meteohub,2013-09-27 17:18:00,
2013-09-27 13:19:00,71.6,53.6,30.40,South,180,4.0,4.0,53,0.00,,,0.00,meteohub,2013-09-27 17:19:00,
2013-09-27 13:21:00,72.0,52.3,30.40,WSW,248,4.0,4.0,50,0.00,,,0.00,meteohub,2013-09-27 17:21:00,
2013-09-27 13:23:00,72.0,53.4,30.40,WSW,248,4.0,4.0,52,0.00,,,0.00,meteohub,2013-09-27 17:23:00,
2013-09-27 13:24:00,72.1,53.6,30.40,WSW,248,3.0,4.0,52,0.00,,,0.00,meteohub,2013-09-27 17:24:00,
2013-09-27 13:25:00,72.7,54.5,30.39,North,0,2.0,4.0,53,0.00,,,0.00,meteohub,2013-09-27 17:25:00,
2013-09-27 13:26:00,72.7,54.5,30.39,North,0,2.0,4.0,53,0.00,,,0.00,meteohub,2013-09-27 17:26:00,
2013-09-27 13:28:00,73.6,52.7,30.40,East,90,1.0,4.0,48,0.00,,,0.00,meteohub,2013-09-27 17:28:00,
2013-09-27 13:29:00,73.9,51.3,30.40,NE,45,7.0,7.0,45,0.00,,,0.00,meteohub,2013-09-27 17:29:00,
2013-09-27 13:31:00,73.9,50.7,30.40,NW,315,4.0,5.0,44,0.00,,,0.00,meteohub,2013-09-27 17:31:00,
2013-09-27 13:32:00,74.1,51.4,30.39,East,90,2.0,5.0,45,0.00,,,0.00,meteohub,2013-09-27 17:32:00,
2013-09-27 13:34:00,74.3,51.6,30.39,East,90,2.0,5.0,45,0.00,,,0.00,meteohub,2013-09-27 17:34:00,
2013-09-27 13:35:00,74.7,52.0,30.40,WSW,248,3.0,5.0,45,0.00,,,0.00,meteohub,2013-09-27 17:35:00,
2013-09-27 13:37:00,75.6,52.7,30.39,South,180,3.0,7.0,45,0.00,,,0.00,meteohub,2013-09-27 17:37:00,
2013-09-27 13:38:00,75.7,53.4,30.39,South,180,2.0,7.0,46,0.00,,,0.00,meteohub,2013-09-27 17:38:00,
2013-09-27 13:39:00,76.5,54.1,30.39,South,180,2.0,7.0,46,0.00,,,0.00,meteohub,2013-09-27 17:39:00,
2013-09-27 13:40:00,76.8,52.7,30.39,WSW,248,3.0,7.0,43,0.00,,,0.00,meteohub,2013-09-27 17:40:00,
2013-09-27 13:41:00,77.0,52.9,30.39,SE,135,2.0,7.0,43,0.00,,,0.00,meteohub,2013-09-27 17:41:00,
2013-09-27 13:43:00,77.0,52.9,30.39,SE,135,2.0,7.0,43,0.00,,,0.00,meteohub,2013-09-27 17:43:00,
2013-09-27 13:45:00,77.2,52.9,30.39,NE,45,4.0,7.0,43,0.00,,,0.00,meteohub,2013-09-27 17:45:00,
2013-09-27 13:46:00,77.2,52.9,30.39,NE,45,4.0,7.0,43,0.00,,,0.00,meteohub,2013-09-27 17:46:00,
2013-09-27 13:48:00,76.6,51.8,30.39,South,180,7.0,7.0,42,0.00,,,0.00,meteohub,2013-09-27 17:48:00,
2013-09-27 13:51:00,75.7,53.4,30.39,NE,45,4.0,7.0,46,0.00,,,0.00,meteohub,2013-09-27 17:51:00,
2013-09-27 13:52:00,75.6,51.4,30.39,NE,45,4.0,7.0,43,0.00,,,0.00,meteohub,2013-09-27 17:52:00,
2013-09-27 13:54:00,75.7,52.9,30.39,West,270,4.0,7.0,45,0.00,,,0.00,meteohub,2013-09-27 17:54:00,
2013-09-27 13:55:00,75.6,52.2,30.39,East,90,2.0,7.0,44,0.00,,,0.00,meteohub,2013-09-27 17:55:00,
2013-09-27 13:57:00,75.4,52.0,30.39,South,180,2.0,7.0,44,0.00,,,0.00,meteohub,2013-09-27 17:57:00,
2013-09-27 13:59:00,76.5,52.9,30.39,NW,315,2.0,7.0,44,0.00,,,0.00,meteohub,2013-09-27 17:59:00,
2013-09-27 14:01:00,76.8,52.7,30.39,NW,315,2.0,7.0,43,0.00,,,0.00,meteohub,2013-09-27 18:01:00,
2013-09-27 14:02:00,77.4,51.8,30.39,WSW,248,2.0,7.0,41,0.00,,,0.00,meteohub,2013-09-27 18:02:00,
2013-09-27 14:03:00,77.4,51.8,30.39,WSW,248,2.0,7.0,41,0.00,,,0.00,meteohub,2013-09-27 18:03:00,
2013-09-27 14:05:00,76.3,51.4,30.39,South,180,2.0,7.0,42,0.00,,,0.00,meteohub,2013-09-27 18:05:00,
2013-09-27 14:07:00,75.0,52.9,30.39,WSW,248,2.0,4.0,46,0.00,,,0.00,meteohub,2013-09-27 18:07:00,
2013-09-27 14:08:00,75.0,52.9,30.39,WSW,248,2.0,4.0,46,0.00,,,0.00,meteohub,2013-09-27 18:08:00,
2013-09-27 14:10:00,73.9,54.1,30.39,NE,45,0.0,3.0,50,0.00,,,0.00,meteohub,2013-09-27 18:10:00,
2013-09-27 14:11:00,73.8,53.4,30.39,North,0,2.0,3.0,49,0.00,,,0.00,meteohub,2013-09-27 18:11:00,
2013-09-27 14:12:00,72.9,53.1,30.39,North,0,7.0,7.0,50,0.00,,,0.00,meteohub,2013-09-27 18:12:00,
2013-09-27 14:13:00,72.9,53.1,30.39,North,0,7.0,7.0,50,0.00,,,0.00,meteohub,2013-09-27 18:13:00,
2013-09-27 14:14:00,72.3,53.2,30.38,SE,135,3.0,3.0,51,0.00,,,0.00,meteohub,2013-09-27 18:14:00,
2013-09-27 14:17:00,71.1,54.5,30.38,East,90,1.0,7.0,56,0.00,,,0.00,meteohub,2013-09-27 18:17:00,
2013-09-27 14:18:00,70.9,53.4,30.38,NE,45,2.0,7.0,54,0.00,,,0.00,meteohub,2013-09-27 18:18:00,
2013-09-27 14:19:00,70.7,53.2,30.39,SE,135,2.0,7.0,54,0.00,,,0.00,meteohub,2013-09-27 18:19:00,
2013-09-27 14:20:00,70.3,53.4,30.39,East,90,2.0,7.0,55,0.00,,,0.00,meteohub,2013-09-27 18:20:00,
2013-09-27 14:24:00,69.8,52.9,30.39,South,180,2.0,7.0,55,0.00,,,0.00,meteohub,2013-09-27 18:24:00,
2013-09-27 14:25:00,69.8,52.9,30.39,South,180,0.0,7.0,55,0.00,,,0.00,meteohub,2013-09-27 18:25:00,
2013-09-27 14:26:00,69.8,53.4,30.39,South,180,0.0,7.0,56,0.00,,,0.00,meteohub,2013-09-27 18:26:00,
2013-09-27 14:29:00,70.0,53.1,30.39,WSW,248,0.0,7.0,55,0.00,,,0.00,meteohub,2013-09-27 18:29:00,
2013-09-27 14:30:00,70.2,53.2,30.38,West,270,0.0,7.0,55,0.00,,,0.00,meteohub,2013-09-27 18:30:00,
2013-09-27 14:31:00,70.2,53.2,30.38,West,270,0.0,3.0,55,0.00,,,0.00,meteohub,2013-09-27 18:31:00,
2013-09-27 14:32:00,71.1,53.1,30.38,West,270,3.0,3.0,53,0.00,,,0.00,meteohub,2013-09-27 18:32:00,
2013-09-27 14:34:00,72.9,53.6,30.38,West,270,2.0,3.0,51,0.00,,,0.00,meteohub,2013-09-27 18:34:00,
2013-09-27 14:36:00,73.0,52.7,30.38,NW,315,3.0,3.0,49,0.00,,,0.00,meteohub,2013-09-27 18:36:00,
2013-09-27 14:39:00,72.9,53.1,30.39,SE,135,1.0,3.0,50,0.00,,,0.00,meteohub,2013-09-27 18:39:00,
2013-09-27 14:40:00,72.9,54.1,30.39,SE,135,2.0,3.0,52,0.00,,,0.00,meteohub,2013-09-27 18:40:00,
2013-09-27 14:41:00,72.7,54.0,30.39,North,0,1.0,3.0,52,0.00,,,0.00,meteohub,2013-09-27 18:41:00,
2013-09-27 14:42:00,72.7,54.5,30.39,NW,315,1.0,3.0,53,0.00,,,0.00,meteohub,2013-09-27 18:42:00,
2013-09-27 14:44:00,73.4,54.1,30.39,North,0,2.0,3.0,51,0.00,,,0.00,meteohub,2013-09-27 18:44:00,
2013-09-27 14:45:00,73.8,52.9,30.39,NW,315,4.0,4.0,48,0.00,,,0.00,meteohub,2013-09-27 18:45:00,
2013-09-27 14:47:00,74.3,54.0,30.38,East,90,4.0,4.0,49,0.00,,,0.00,meteohub,2013-09-27 18:47:00,
2013-09-27 14:48:00,74.5,54.1,30.38,East,90,3.0,3.0,49,0.00,,,0.00,meteohub,2013-09-27 18:48:00,
2013-09-27 14:49:00,74.7,53.1,30.38,SE,135,4.0,4.0,47,0.00,,,0.00,meteohub,2013-09-27 18:49:00,
2013-09-27 14:51:00,74.8,52.2,30.38,North,0,3.0,4.0,45,0.00,,,0.00,meteohub,2013-09-27 18:51:00,
2013-09-27 14:53:00,74.5,52.3,30.38,West,270,4.0,4.0,46,0.00,,,0.00,meteohub,2013-09-27 18:53:00,
2013-09-27 14:54:00,73.6,52.2,30.38,East,90,4.0,4.0,47,0.00,,,0.00,meteohub,2013-09-27 18:54:00,
2013-09-27 14:55:00,73.2,51.8,30.38,East,90,4.0,4.0,47,0.00,,,0.00,meteohub,2013-09-27 18:55:00,
2013-09-27 14:57:00,72.5,52.3,30.38,North,0,2.0,4.0,49,0.00,,,0.00,meteohub,2013-09-27 18:57:00,
2013-09-27 14:58:00,72.5,52.9,30.39,NE,45,0.0,4.0,50,0.00,,,0.00,meteohub,2013-09-27 18:58:00,
2013-09-27 15:00:00,72.9,54.1,30.38,NE,45,2.0,4.0,52,0.00,,,0.00,meteohub,2013-09-27 19:00:00,
2013-09-27 15:01:00,72.9,54.1,30.39,NE,45,2.0,4.0,52,0.00,,,0.00,meteohub,2013-09-27 19:01:00,
2013-09-27 15:03:00,74.1,52.0,30.38,WSW,248,2.0,4.0,46,0.00,,,0.00,meteohub,2013-09-27 19:03:00,
2013-09-27 15:05:00,74.8,56.1,30.38,East,90,1.0,4.0,52,0.00,,,0.00,meteohub,2013-09-27 19:05:00,
2013-09-27 15:07:00,75.6,52.7,30.38,South,180,2.0,4.0,45,0.00,,,0.00,meteohub,2013-09-27 19:07:00,
2013-09-27 15:08:00,76.1,52.5,30.38,West,270,1.0,4.0,44,0.00,,,0.00,meteohub,2013-09-27 19:08:00,
2013-09-27 15:09:00,76.6,53.1,30.38,East,90,1.0,4.0,44,0.00,,,0.00,meteohub,2013-09-27 19:09:00,
2013-09-27 15:12:00,77.0,51.4,30.38,North,0,1.0,4.0,41,0.00,,,0.00,meteohub,2013-09-27 19:12:00,
2013-09-27 15:13:00,77.0,51.4,30.38,NW,315,1.0,4.0,41,0.00,,,0.00,meteohub,2013-09-27 19:13:00,
2013-09-27 15:14:00,77.0,52.9,30.38,East,90,2.0,4.0,43,0.00,,,0.00,meteohub,2013-09-27 19:14:00,
2013-09-27 15:15:00,76.8,52.7,30.38,East,90,2.0,4.0,43,0.00,,,0.00,meteohub,2013-09-27 19:15:00,
2013-09-27 15:18:00,75.4,53.8,30.38,East,90,2.0,2.0,47,0.00,,,0.00,meteohub,2013-09-27 19:18:00,
2013-09-27 15:19:00,75.2,54.1,30.38,East,90,2.0,2.0,48,0.00,,,0.00,meteohub,2013-09-27 19:19:00,
2013-09-27 15:20:00,75.0,54.0,30.38,East,90,2.0,2.0,48,0.00,,,0.00,meteohub,2013-09-27 19:20:00,
2013-09-27 15:23:00,73.9,52.5,30.38,NE,45,3.0,3.0,47,0.00,,,0.00,meteohub,2013-09-27 19:23:00,
2013-09-27 15:24:00,73.6,53.2,30.38,NE,45,4.0,4.0,49,0.00,,,0.00,meteohub,2013-09-27 19:24:00,
2013-09-27 15:25:00,73.0,53.8,30.38,North,0,2.0,2.0,51,0.00,,,0.00,meteohub,2013-09-27 19:25:00,
2013-09-27 15:26:00,72.5,54.3,30.38,NE,45,2.0,4.0,53,0.00,,,0.00,meteohub,2013-09-27 19:26:00,
2013-09-27 15:27:00,72.5,54.3,30.38,NE,45,2.0,4.0,53,0.00,,,0.00,meteohub,2013-09-27 19:27:00,
2013-09-27 15:29:00,72.7,52.9,30.38,NW,315,2.0,4.0,50,0.00,,,0.00,meteohub,2013-09-27 19:29:00,
2013-09-27 15:30:00,72.7,52.9,30.38,NE,45,2.0,4.0,50,0.00,,,0.00,meteohub,2013-09-27 19:30:00,
2013-09-27 15:31:00,72.7,54.5,30.38,NE,45,2.0,4.0,53,0.00,,,0.00,meteohub,2013-09-27 19:31:00,
2013-09-27 15:32:00,72.5,54.3,30.38,WSW,248,0.0,4.0,53,0.00,,,0.00,meteohub,2013-09-27 19:32:00,
2013-09-27 15:33:00,72.3,53.8,30.38,East,90,2.0,4.0,52,0.00,,,0.00,meteohub,2013-09-27 19:33:00,
2013-09-27 15:35:00,71.8,54.7,30.38,West,270,2.0,4.0,55,0.00,,,0.00,meteohub,2013-09-27 19:35:00,
2013-09-27 15:36:00,71.6,54.1,30.38,NE,45,2.0,4.0,54,0.00,,,0.00,meteohub,2013-09-27 19:36:00,
2013-09-27 15:37:00,71.2,53.8,30.38,WSW,248,2.0,4.0,54,0.00,,,0.00,meteohub,2013-09-27 19:37:00,
2013-09-27 15:39:00,70.5,53.6,30.38,West,270,0.0,4.0,55,0.00,,,0.00,meteohub,2013-09-27 19:39:00,
2013-09-27 15:41:00,70.2,53.8,30.38,West,270,2.0,2.0,56,0.00,,,0.00,meteohub,2013-09-27 19:41:00,
2013-09-27 15:42:00,70.2,53.2,30.38,NE,45,2.0,2.0,55,0.00,,,0.00,meteohub,2013-09-27 19:42:00,
2013-09-27 15:44:00,69.8,52.9,30.38,NE,45,2.0,2.0,55,0.00,,,0.00,meteohub,2013-09-27 19:44:00,
2013-09-27 15:46:00,69.4,53.1,30.38,East,90,0.0,2.0,56,0.00,,,0.00,meteohub,2013-09-27 19:46:00,
2013-09-27 15:47:00,69.4,53.1,30.38,East,90,0.0,2.0,56,0.00,,,0.00,meteohub,2013-09-27 19:47:00,
2013-09-27 15:48:00,69.4,53.1,30.38,NW,315,1.0,2.0,56,0.00,,,0.00,meteohub,2013-09-27 19:48:00,
2013-09-27 15:49:00,69.4,53.1,30.38,SE,135,0.0,2.0,56,0.00,,,0.00,meteohub,2013-09-27 19:49:00,
2013-09-27 15:52:00,69.4,52.5,30.38,South,180,0.0,2.0,55,0.00,,,0.00,meteohub,2013-09-27 19:52:00,
2013-09-27 15:53:00,69.6,53.2,30.38,South,180,0.0,2.0,56,0.00,,,0.00,meteohub,2013-09-27 19:53:00,
2013-09-27 15:54:00,69.6,53.2,30.38,South,180,0.0,2.0,56,0.00,,,0.00,meteohub,2013-09-27 19:54:00,
2013-09-27 15:55:00,69.6,53.2,30.38,South,180,2.0,2.0,56,0.00,,,0.00,meteohub,2013-09-27 19:55:00,
2013-09-27 15:57:00,69.4,53.1,30.38,West,270,3.0,3.0,56,0.00,,,0.00,meteohub,2013-09-27 19:57:00,
2013-09-27 15:58:00,69.6,53.2,30.38,West,270,2.0,2.0,56,0.00,,,0.00,meteohub,2013-09-27 19:58:00,
2013-09-27 16:00:00,70.2,53.2,30.38,West,270,2.0,2.0,55,0.00,,,0.00,meteohub,2013-09-27 20:00:00,
2013-09-27 16:02:00,70.3,52.9,30.38,NW,315,3.0,3.0,54,0.00,,,0.00,meteohub,2013-09-27 20:02:00,
2013-09-27 16:03:00,70.5,52.5,30.38,NW,315,3.0,3.0,53,0.00,,,0.00,meteohub,2013-09-27 20:03:00,
2013-09-27 16:04:00,71.1,53.1,30.38,West,270,2.0,3.0,53,0.00,,,0.00,meteohub,2013-09-27 20:04:00,
2013-09-27 16:05:00,72.1,53.6,30.38,West,270,1.0,3.0,52,0.00,,,0.00,meteohub,2013-09-27 20:05:00,
2013-09-27 16:06:00,72.9,53.1,30.38,North,0,0.0,3.0,50,0.00,,,0.00,meteohub,2013-09-27 20:06:00,
2013-09-27 16:07:00,73.6,53.2,30.38,WSW,248,2.0,3.0,49,0.00,,,0.00,meteohub,2013-09-27 20:07:00,
2013-09-27 16:10:00,75.4,54.9,30.38,SE,135,0.0,3.0,49,0.00,,,0.00,meteohub,2013-09-27 20:10:00,
2013-09-27 16:11:00,76.8,55.0,30.38,WSW,248,0.0,3.0,47,0.00,,,0.00,meteohub,2013-09-27 20:11:00,
2013-09-27 16:12:00,77.4,55.0,30.38,WSW,248,0.0,3.0,46,0.00,,,0.00,meteohub,2013-09-27 20:12:00,
2013-09-27 16:13:00,77.9,55.4,30.38,NW,315,1.0,3.0,46,0.00,,,0.00,meteohub,2013-09-27 20:13:00,
2013-09-27 16:16:00,78.6,55.6,30.38,SE,135,2.0,3.0,45,0.00,,,0.00,meteohub,2013-09-27 20:16:00,
2013-09-27 16:17:00,79.0,54.5,30.38,South,180,2.0,3.0,43,0.00,,,0.00,meteohub,2013-09-27 20:17:00,
2013-09-27 16:18:00,79.0,57.0,30.38,SE,135,2.0,3.0,47,0.00,,,0.00,meteohub,2013-09-27 20:18:00,
2013-09-27 16:19:00,79.2,57.7,30.38,East,90,2.0,3.0,48,0.00,,,0.00,meteohub,2013-09-27 20:19:00,
2013-09-27 16:21:00,78.4,54.7,30.38,NE,45,4.0,4.0,44,0.00,,,0.00,meteohub,2013-09-27 20:21:00,
2013-09-27 16:22:00,78.3,54.5,30.37,East,90,3.0,3.0,44,0.00,,,0.00,meteohub,2013-09-27 20:22:00,
2013-09-27 16:23:00,77.5,54.5,30.37,South,180,4.0,4.0,45,0.00,,,0.00,meteohub,2013-09-27 20:23:00,
2013-09-27 16:24:00,77.5,54.5,30.38,North,0,4.0,4.0,45,0.00,,,0.00,meteohub,2013-09-27 20:24:00,
2013-09-27 16:27:00,77.2,54.9,30.37,North,0,4.0,6.0,46,0.00,,,0.00,meteohub,2013-09-27 20:27:00,
2013-09-27 16:28:00,76.8,54.5,30.38,East,90,5.0,6.0,46,0.00,,,0.00,meteohub,2013-09-27 20:28:00,
2013-09-27 16:31:00,74.5,54.7,30.38,NE,45,5.0,6.0,50,0.00,,,0.00,meteohub,2013-09-27 20:31:00,
2013-09-27 16:32:00,73.4,54.1,30.38,NE,45,6.0,6.0,51,0.00,,,0.00,meteohub,2013-09-27 20:32:00,
2013-09-27 16:33:00,73.4,54.1,30.38,NE,45,6.0,6.0,51,0.00,,,0.00,meteohub,2013-09-27 20:33:00,
2013-09-27 16:34:00,72.7,54.0,30.38,East,90,5.0,6.0,52,0.00,,,0.00,meteohub,2013-09-27 20:34:00,
2013-09-27 16:37:00,71.1,54.5,30.38,NE,45,3.0,6.0,56,0.00,,,0.00,meteohub,2013-09-27 20:37:00,
2013-09-27 16:38:00,70.5,54.5,30.38,East,90,2.0,6.0,57,0.00,,,0.00,meteohub,2013-09-27 20:38:00,
2013-09-27 16:40:00,70.2,54.1,30.38,East,90,2.0,6.0,57,0.00,,,0.00,meteohub,2013-09-27 20:40:00,
2013-09-27 16:41:00,70.2,54.7,30.38,East,90,3.0,6.0,58,0.00,,,0.00,meteohub,2013-09-27 20:41:00,
2013-09-27 16:42:00,69.8,54.9,30.38,East,90,2.0,6.0,59,0.00,,,0.00,meteohub,2013-09-27 20:42:00,
2013-09-27 16:43:00,69.6,54.7,30.38,SE,135,3.0,6.0,59,0.00,,,0.00,meteohub,2013-09-27 20:43:00,
2013-09-27 16:46:00,69.4,55.4,30.38,East,90,2.0,6.0,61,0.00,,,0.00,meteohub,2013-09-27 20:46:00,
2013-09-27 16:47:00,69.1,54.7,30.38,WSW,248,2.0,6.0,60,0.00,,,0.00,meteohub,2013-09-27 20:47:00,
2013-09-27 16:48:00,69.1,55.0,30.38,SE,135,2.0,6.0,61,0.00,,,0.00,meteohub,2013-09-27 20:48:00,
2013-09-27 16:49:00,69.1,54.7,30.38,NE,45,3.0,6.0,60,0.00,,,0.00,meteohub,2013-09-27 20:49:00,
2013-09-27 16:51:00,68.9,54.5,30.38,NE,45,2.0,4.0,60,0.00,,,0.00,meteohub,2013-09-27 20:51:00,
2013-09-27 16:52:00,68.7,54.7,30.38,SE,135,1.0,4.0,61,0.00,,,0.00,meteohub,2013-09-27 20:52:00,
2013-09-27 16:54:00,68.7,54.7,30.38,East,90,2.0,4.0,61,0.00,,,0.00,meteohub,2013-09-27 20:54:00,
2013-09-27 16:55:00,68.5,54.5,30.38,NE,45,3.0,4.0,61,0.00,,,0.00,meteohub,2013-09-27 20:55:00,
2013-09-27 16:56:00,68.4,54.3,30.38,East,90,1.0,4.0,61,0.00,,,0.00,meteohub,2013-09-27 20:56:00,
2013-09-27 16:57:00,68.4,54.3,30.38,SE,135,1.0,4.0,61,0.00,,,0.00,meteohub,2013-09-27 20:57:00,
2013-09-27 16:58:00,68.4,54.3,30.38,SE,135,1.0,4.0,61,0.00,,,0.00,meteohub,2013-09-27 20:58:00,
2013-09-27 16:59:00,68.4,54.9,30.38,South,180,1.0,4.0,62,0.00,,,0.00,meteohub,2013-09-27 20:59:00,
2013-09-27 17:01:00,68.2,55.0,30.38,NE,45,1.0,3.0,63,0.00,,,0.00,meteohub,2013-09-27 21:01:00,
2013-09-27 17:02:00,68.0,54.9,30.38,NE,45,3.0,3.0,63,0.00,,,0.00,meteohub,2013-09-27 21:02:00,
2013-09-27 17:04:00,67.8,55.2,30.38,South,180,1.0,3.0,64,0.00,,,0.00,meteohub,2013-09-27 21:04:00,
2013-09-27 17:05:00,67.6,55.4,30.38,East,90,2.0,4.0,65,0.00,,,0.00,meteohub,2013-09-27 21:05:00,
2013-09-27 17:06:00,67.5,55.2,30.38,South,180,2.0,4.0,65,0.00,,,0.00,meteohub,2013-09-27 21:06:00,
2013-09-27 17:07:00,67.5,55.2,30.38,East,90,1.0,4.0,65,0.00,,,0.00,meteohub,2013-09-27 21:07:00,
2013-09-27 17:08:00,67.5,55.2,30.38,WSW,248,1.0,4.0,65,0.00,,,0.00,meteohub,2013-09-27 21:08:00,
2013-09-27 17:10:00,67.3,55.0,30.38,SE,135,1.0,4.0,65,0.00,,,0.00,meteohub,2013-09-27 21:10:00,
2013-09-27 17:11:00,67.3,55.0,30.38,North,0,4.0,4.0,65,0.00,,,0.00,meteohub,2013-09-27 21:11:00,
2013-09-27 17:12:00,67.3,55.0,30.38,SE,135,0.0,4.0,65,0.00,,,0.00,meteohub,2013-09-27 21:12:00,
2013-09-27 17:13:00,67.3,55.9,30.38,SE,135,2.0,4.0,67,0.00,,,0.00,meteohub,2013-09-27 21:13:00,
2013-09-27 17:14:00,67.3,55.9,30.38,WSW,248,2.0,4.0,67,0.00,,,0.00,meteohub,2013-09-27 21:14:00,
2013-09-27 17:15:00,67.3,55.9,30.38,WSW,248,2.0,4.0,67,0.00,,,0.00,meteohub,2013-09-27 21:15:00,
2013-09-27 17:16:00,67.3,55.9,30.38,WSW,248,2.0,4.0,67,0.00,,,0.00,meteohub,2013-09-27 21:16:00,
2013-09-27 17:18:00,67.3,55.6,30.38,SE,135,1.0,4.0,66,0.00,,,0.00,meteohub,2013-09-27 21:18:00,
2013-09-27 17:19:00,67.3,55.6,30.38,SE,135,2.0,4.0,66,0.00,,,0.00,meteohub,2013-09-27 21:19:00,
2013-09-27 17:20:00,67.3,55.6,30.38,East,90,2.0,4.0,66,0.00,,,0.00,meteohub,2013-09-27 21:20:00,
2013-09-27 17:22:00,67.1,55.4,30.38,East,90,1.0,4.0,66,0.00,,,0.00,meteohub,2013-09-27 21:22:00,
2013-09-27 17:24:00,67.1,55.8,30.38,SE,135,1.0,4.0,67,0.00,,,0.00,meteohub,2013-09-27 21:24:00,
2013-09-27 17:25:00,67.3,55.9,30.38,East,90,2.0,4.0,67,0.00,,,0.00,meteohub,2013-09-27 21:25:00,
2013-09-27 17:26:00,67.3,55.6,30.38,SE,135,1.0,4.0,66,0.00,,,0.00,meteohub,2013-09-27 21:26:00,
2013-09-27 17:27:00,67.5,55.8,30.38,SE,135,2.0,4.0,66,0.00,,,0.00,meteohub,2013-09-27 21:27:00,
2013-09-27 17:28:00,67.5,55.2,30.38,SE,135,2.0,4.0,65,0.00,,,0.00,meteohub,2013-09-27 21:28:00,
2013-09-27 17:30:00,67.5,55.2,30.38,SE,135,2.0,4.0,65,0.00,,,0.00,meteohub,2013-09-27 21:30:00,
2013-09-27 17:31:00,67.5,55.2,30.38,SE,135,2.0,4.0,65,0.00,,,0.00,meteohub,2013-09-27 21:31:00,
2013-09-27 17:34:00,67.1,54.9,30.38,East,90,1.0,4.0,65,0.00,,,0.00,meteohub,2013-09-27 21:34:00,
2013-09-27 17:36:00,66.9,55.6,30.39,SE,135,1.0,4.0,67,0.00,,,0.00,meteohub,2013-09-27 21:36:00,
2013-09-27 17:37:00,66.7,55.0,30.38,NE,45,2.0,4.0,66,0.00,,,0.00,meteohub,2013-09-27 21:37:00,
2013-09-27 17:39:00,66.6,54.9,30.38,NE,45,3.0,4.0,66,0.00,,,0.00,meteohub,2013-09-27 21:39:00,
2013-09-27 17:41:00,66.4,55.6,30.38,East,90,2.0,4.0,68,0.00,,,0.00,meteohub,2013-09-27 21:41:00,
2013-09-27 17:42:00,66.2,55.4,30.38,East,90,2.0,4.0,68,0.00,,,0.00,meteohub,2013-09-27 21:42:00,
2013-09-27 17:44:00,66.2,55.4,30.38,East,90,2.0,4.0,68,0.00,,,0.00,meteohub,2013-09-27 21:44:00,
2013-09-27 17:45:00,66.0,55.2,30.38,East,90,4.0,4.0,68,0.00,,,0.00,meteohub,2013-09-27 21:45:00,
2013-09-27 17:46:00,65.8,55.4,30.38,East,90,3.0,5.0,69,0.00,,,0.00,meteohub,2013-09-27 21:46:00,
2013-09-27 17:49:00,65.7,55.2,30.39,East,90,2.0,5.0,69,0.00,,,0.00,meteohub,2013-09-27 21:49:00,
2013-09-27 17:50:00,65.7,55.2,30.39,East,90,2.0,5.0,69,0.00,,,0.00,meteohub,2013-09-27 21:50:00,
2013-09-27 17:51:00,65.5,55.0,30.39,East,90,2.0,5.0,69,0.00,,,0.00,meteohub,2013-09-27 21:51:00,
2013-09-27 17:53:00,65.3,55.2,30.39,East,90,2.0,5.0,70,0.00,,,0.00,meteohub,2013-09-27 21:53:00,
2013-09-27 17:55:00,65.1,55.0,30.39,SE,135,2.0,5.0,70,0.00,,,0.00,meteohub,2013-09-27 21:55:00,
2013-09-27 17:56:00,64.9,55.4,30.38,East,90,3.0,5.0,71,0.00,,,0.00,meteohub,2013-09-27 21:56:00,
2013-09-27 17:58:00,64.8,55.2,30.38,East,90,3.0,5.0,71,0.00,,,0.00,meteohub,2013-09-27 21:58:00,
2013-09-27 17:59:00,64.8,55.2,30.38,East,90,3.0,5.0,71,0.00,,,0.00,meteohub,2013-09-27 21:59:00,
2013-09-27 18:00:00,64.6,55.0,30.38,East,90,4.0,5.0,71,0.00,,,0.00,meteohub,2013-09-27 22:00:00,
2013-09-27 18:01:00,64.6,55.0,30.38,East,90,2.0,4.0,71,0.00,,,0.00,meteohub,2013-09-27 22:01:00,
2013-09-27 18:02:00,64.6,55.0,30.38,East,90,2.0,4.0,71,0.00,,,0.00,meteohub,2013-09-27 22:02:00,
2013-09-27 18:04:00,64.4,55.2,30.38,East,90,4.0,4.0,72,0.00,,,0.00,meteohub,2013-09-27 22:04:00,
2013-09-27 18:05:00,64.4,55.2,30.38,East,90,2.0,4.0,72,0.00,,,0.00,meteohub,2013-09-27 22:05:00,
2013-09-27 18:07:00,64.2,55.0,30.38,East,90,3.0,4.0,72,0.00,,,0.00,meteohub,2013-09-27 22:07:00,
2013-09-27 18:09:00,64.2,55.0,30.38,East,90,2.0,4.0,72,0.00,,,0.00,meteohub,2013-09-27 22:09:00,
2013-09-27 18:11:00,64.2,55.0,30.39,East,90,2.0,5.0,72,0.00,,,0.00,meteohub,2013-09-27 22:11:00,
2013-09-27 18:13:00,64.0,54.9,30.38,NE,45,4.0,5.0,72,0.00,,,0.00,meteohub,2013-09-27 22:13:00,
2013-09-27 18:15:00,64.0,55.2,30.38,East,90,3.0,5.0,73,0.00,,,0.00,meteohub,2013-09-27 22:15:00,
2013-09-27 18:17:00,64.0,55.2,30.38,East,90,3.0,5.0,73,0.00,,,0.00,meteohub,2013-09-27 22:17:00,
2013-09-27 18:19:00,63.9,55.0,30.39,East,90,3.0,5.0,73,0.00,,,0.00,meteohub,2013-09-27 22:19:00,
2013-09-27 18:20:00,63.9,55.0,30.38,North,0,2.0,5.0,73,0.00,,,0.00,meteohub,2013-09-27 22:20:00,
2013-09-27 18:22:00,63.9,55.0,30.38,East,90,3.0,4.0,73,0.00,,,0.00,meteohub,2013-09-27 22:22:00,
2013-09-27 18:23:00,63.9,55.0,30.38,East,90,3.0,4.0,73,0.00,,,0.00,meteohub,2013-09-27 22:23:00,
2013-09-27 18:24:00,63.7,54.9,30.38,North,0,2.0,4.0,73,0.00,,,0.00,meteohub,2013-09-27 22:24:00,
2013-09-27 18:25:00,63.7,54.9,30.39,East,90,3.0,4.0,73,0.00,,,0.00,meteohub,2013-09-27 22:25:00,
2013-09-27 18:27:00,63.7,54.9,30.39,East,90,2.0,4.0,73,0.00,,,0.00,meteohub,2013-09-27 22:27:00,
2013-09-27 18:28:00,63.7,54.9,30.39,East,90,2.0,4.0,73,0.00,,,0.00,meteohub,2013-09-27 22:28:00,
2013-09-27 18:30:00,63.5,54.7,30.38,East,90,2.0,4.0,73,0.00,,,0.00,meteohub,2013-09-27 22:30:00,
2013-09-27 18:32:00,63.5,54.7,30.39,East,90,3.0,4.0,73,0.00,,,0.00,meteohub,2013-09-27 22:32:00,
2013-09-27 18:33:00,63.5,54.7,30.39,East,90,2.0,4.0,73,0.00,,,0.00,meteohub,2013-09-27 22:33:00,
2013-09-27 18:34:00,63.3,54.5,30.39,East,90,2.0,4.0,73,0.00,,,0.00,meteohub,2013-09-27 22:34:00,
2013-09-27 18:36:00,63.3,54.5,30.39,East,90,3.0,4.0,73,0.00,,,0.00,meteohub,2013-09-27 22:36:00,
2013-09-27 18:37:00,63.1,54.3,30.39,East,90,3.0,4.0,73,0.00,,,0.00,meteohub,2013-09-27 22:37:00,
2013-09-27 18:38:00,63.1,54.3,30.39,East,90,3.0,4.0,73,0.00,,,0.00,meteohub,2013-09-27 22:38:00,
2013-09-27 18:40:00,63.0,54.1,30.39,East,90,2.0,4.0,73,0.00,,,0.00,meteohub,2013-09-27 22:40:00,
2013-09-27 18:41:00,63.0,54.5,30.39,East,90,2.0,4.0,74,0.00,,,0.00,meteohub,2013-09-27 22:41:00,
2013-09-27 18:43:00,62.8,54.3,30.39,East,90,2.0,4.0,74,0.00,,,0.00,meteohub,2013-09-27 22:43:00,
2013-09-27 18:45:00,62.6,54.1,30.39,East,90,2.0,4.0,74,0.00,,,0.00,meteohub,2013-09-27 22:45:00,
2013-09-27 18:46:00,62.6,54.1,30.39,East,90,2.0,3.0,74,0.00,,,0.00,meteohub,2013-09-27 22:46:00,
2013-09-27 18:48:00,62.4,54.3,30.39,East,90,2.0,3.0,75,0.00,,,0.00,meteohub,2013-09-27 22:48:00,
2013-09-27 18:50:00,62.2,54.1,30.39,East,90,2.0,3.0,75,0.00,,,0.00,meteohub,2013-09-27 22:50:00,
2013-09-27 18:51:00,62.2,54.1,30.39,East,90,2.0,3.0,75,0.00,,,0.00,meteohub,2013-09-27 22:51:00,
2013-09-27 18:52:00,62.2,54.1,30.39,East,90,2.0,3.0,75,0.00,,,0.00,meteohub,2013-09-27 22:52:00,
2013-09-27 18:53:00,62.1,54.0,30.39,East,90,3.0,3.0,75,0.00,,,0.00,meteohub,2013-09-27 22:53:00,
2013-09-27 18:56:00,61.9,54.3,30.39,East,90,2.0,3.0,76,0.00,,,0.00,meteohub,2013-09-27 22:56:00,
2013-09-27 18:57:00,61.9,54.3,30.39,East,90,3.0,3.0,76,0.00,,,0.00,meteohub,2013-09-27 22:57:00,
2013-09-27 18:58:00,61.7,54.1,30.39,East,90,2.0,3.0,76,0.00,,,0.00,meteohub,2013-09-27 22:58:00,
2013-09-27 18:59:00,61.7,54.1,30.39,East,90,2.0,3.0,76,0.00,,,0.00,meteohub,2013-09-27 22:59:00,
2013-09-27 19:01:00,61.7,54.1,30.39,East,90,2.0,3.0,76,0.00,,,0.00,meteohub,2013-09-27 23:01:00,
2013-09-27 19:02:00,61.5,54.0,30.39,East,90,2.0,3.0,76,0.00,,,0.00,meteohub,2013-09-27 23:02:00,
2013-09-27 19:05:00,61.3,54.1,30.39,East,90,2.0,3.0,77,0.00,,,0.00,meteohub,2013-09-27 23:05:00,
2013-09-27 19:07:00,61.2,54.0,30.39,East,90,2.0,3.0,77,0.00,,,0.00,meteohub,2013-09-27 23:07:00,
2013-09-27 19:08:00,61.2,54.0,30.39,East,90,2.0,3.0,77,0.00,,,0.00,meteohub,2013-09-27 23:08:00,
2013-09-27 19:11:00,61.0,54.1,30.39,East,90,2.0,3.0,78,0.00,,,0.00,meteohub,2013-09-27 23:11:00,
2013-09-27 19:13:00,60.8,54.0,30.39,East,90,2.0,3.0,78,0.00,,,0.00,meteohub,2013-09-27 23:13:00,
2013-09-27 19:17:00,60.6,54.1,30.39,East,90,2.0,3.0,79,0.00,,,0.00,meteohub,2013-09-27 23:17:00,
2013-09-27 19:18:00,60.4,54.0,30.40,East,90,2.0,3.0,79,0.00,,,0.00,meteohub,2013-09-27 23:18:00,
2013-09-27 19:20:00,60.4,54.3,30.40,East,90,2.0,3.0,80,0.00,,,0.00,meteohub,2013-09-27 23:20:00,
2013-09-27 19:21:00,60.3,54.1,30.39,East,90,2.0,3.0,80,0.00,,,0.00,meteohub,2013-09-27 23:21:00,
2013-09-27 19:23:00,60.3,54.1,30.39,East,90,2.0,3.0,80,0.00,,,0.00,meteohub,2013-09-27 23:23:00,
2013-09-27 19:24:00,60.1,54.0,30.40,East,90,2.0,3.0,80,0.00,,,0.00,meteohub,2013-09-27 23:24:00,
2013-09-27 19:26:00,60.1,54.0,30.39,East,90,2.0,3.0,80,0.00,,,0.00,meteohub,2013-09-27 23:26:00,
2013-09-27 19:27:00,60.1,54.0,30.40,East,90,2.0,3.0,80,0.00,,,0.00,meteohub,2013-09-27 23:27:00,
2013-09-27 19:28:00,60.1,54.0,30.40,East,90,2.0,3.0,80,0.00,,,0.00,meteohub,2013-09-27 23:28:00,
2013-09-27 19:29:00,60.1,54.0,30.40,East,90,3.0,3.0,80,0.00,,,0.00,meteohub,2013-09-27 23:29:00,
2013-09-27 19:31:00,60.1,54.3,30.40,East,90,2.0,2.0,81,0.00,,,0.00,meteohub,2013-09-27 23:31:00,
2013-09-27 19:32:00,60.1,54.3,30.40,East,90,2.0,2.0,81,0.00,,,0.00,meteohub,2013-09-27 23:32:00,
2013-09-27 19:33:00,59.9,54.1,30.40,East,90,2.0,2.0,81,0.00,,,0.00,meteohub,2013-09-27 23:33:00,
2013-09-27 19:34:00,59.9,54.1,30.40,East,90,2.0,2.0,81,0.00,,,0.00,meteohub,2013-09-27 23:34:00,
2013-09-27 19:37:00,59.9,54.1,30.40,East,90,3.0,3.0,81,0.00,,,0.00,meteohub,2013-09-27 23:37:00,
2013-09-27 19:38:00,59.9,54.1,30.40,East,90,2.0,3.0,81,0.00,,,0.00,meteohub,2013-09-27 23:38:00,
2013-09-27 19:40:00,59.9,54.1,30.40,East,90,3.0,3.0,81,0.00,,,0.00,meteohub,2013-09-27 23:40:00,
2013-09-27 19:43:00,59.7,54.0,30.40,East,90,2.0,3.0,81,0.00,,,0.00,meteohub,2013-09-27 23:43:00,
2013-09-27 19:45:00,59.7,54.0,30.39,East,90,2.0,3.0,81,0.00,,,0.00,meteohub,2013-09-27 23:45:00,
2013-09-27 19:46:00,59.7,54.0,30.40,East,90,2.0,3.0,81,0.00,,,0.00,meteohub,2013-09-27 23:46:00,
2013-09-27 19:48:00,59.7,54.0,30.40,East,90,2.0,3.0,81,0.00,,,0.00,meteohub,2013-09-27 23:48:00,
2013-09-27 19:51:00,59.7,54.0,30.40,SE,135,2.0,3.0,81,0.00,,,0.00,meteohub,2013-09-27 23:51:00,
2013-09-27 19:52:00,59.7,54.0,30.40,East,90,2.0,3.0,81,0.00,,,0.00,meteohub,2013-09-27 23:52:00,
2013-09-27 19:53:00,59.5,53.8,30.40,East,90,2.0,3.0,81,0.00,,,0.00,meteohub,2013-09-27 23:53:00,
2013-09-27 19:54:00,59.5,53.8,30.40,East,90,2.0,3.0,81,0.00,,,0.00,meteohub,2013-09-27 23:54:00,
2013-09-27 19:57:00,59.5,53.8,30.40,East,90,2.0,3.0,81,0.00,,,0.00,meteohub,2013-09-27 23:57:00,
2013-09-27 19:58:00,59.4,53.6,30.40,East,90,2.0,3.0,81,0.00,,,0.00,meteohub,2013-09-27 23:58:00,
2013-09-27 19:59:00,59.4,53.6,30.40,East,90,2.0,3.0,81,0.00,,,0.00,meteohub,2013-09-27 23:59:00,
2013-09-27 20:00:00,59.4,53.6,30.40,East,90,2.0,3.0,81,0.00,,,0.00,meteohub,2013-09-28 00:00:00,
2013-09-27 20:02:00,59.4,53.6,30.40,East,90,2.0,3.0,81,0.00,,,0.00,meteohub,2013-09-28 00:02:00,
2013-09-27 20:03:00,59.4,53.6,30.40,East,90,3.0,3.0,81,0.00,,,0.00,meteohub,2013-09-28 00:03:00,
2013-09-27 20:04:00,59.4,53.6,30.40,East,90,2.0,3.0,81,0.00,,,0.00,meteohub,2013-09-28 00:04:00,
2013-09-27 20:06:00,59.2,53.4,30.40,East,90,2.0,3.0,81,0.00,,,0.00,meteohub,2013-09-28 00:06:00,
2013-09-27 20:07:00,59.2,53.4,30.40,East,90,2.0,3.0,81,0.00,,,0.00,meteohub,2013-09-28 00:07:00,
2013-09-27 20:08:00,59.2,53.4,30.40,East,90,2.0,3.0,81,0.00,,,0.00,meteohub,2013-09-28 00:08:00,
2013-09-27 20:09:00,59.2,53.4,30.40,East,90,2.0,3.0,81,0.00,,,0.00,meteohub,2013-09-28 00:09:00,
2013-09-27 20:10:00,59.2,53.6,30.40,East,90,2.0,3.0,82,0.00,,,0.00,meteohub,2013-09-28 00:10:00,
2013-09-27 20:13:00,59.0,53.6,30.40,East,90,2.0,3.0,82,0.00,,,0.00,meteohub,2013-09-28 00:13:00,
2013-09-27 20:15:00,59.0,53.6,30.40,East,90,2.0,3.0,82,0.00,,,0.00,meteohub,2013-09-28 00:15:00,
2013-09-27 20:16:00,59.0,53.6,30.40,East,90,2.0,3.0,82,0.00,,,0.00,meteohub,2013-09-28 00:16:00,
2013-09-27 20:18:00,58.6,53.2,30.40,East,90,2.0,3.0,82,0.00,,,0.00,meteohub,2013-09-28 00:18:00,
2013-09-27 20:20:00,58.6,53.4,30.40,East,90,2.0,3.0,83,0.00,,,0.00,meteohub,2013-09-28 00:20:00,
2013-09-27 20:21:00,58.6,53.4,30.40,East,90,2.0,2.0,83,0.00,,,0.00,meteohub,2013-09-28 00:21:00,
2013-09-27 20:23:00,58.5,53.2,30.40,East,90,2.0,2.0,83,0.00,,,0.00,meteohub,2013-09-28 00:23:00,
2013-09-27 20:25:00,58.5,53.2,30.40,East,90,2.0,2.0,83,0.00,,,0.00,meteohub,2013-09-28 00:25:00,
2013-09-27 20:26:00,58.3,53.1,30.40,East,90,2.0,2.0,83,0.00,,,0.00,meteohub,2013-09-28 00:26:00,
2013-09-27 20:27:00,58.3,53.1,30.40,East,90,2.0,2.0,83,0.00,,,0.00,meteohub,2013-09-28 00:27:00,
2013-09-27 20:30:00,58.3,53.1,30.40,East,90,2.0,2.0,83,0.00,,,0.00,meteohub,2013-09-28 00:30:00,
2013-09-27 20:32:00,58.1,52.9,30.40,East,90,2.0,3.0,83,0.00,,,0.00,meteohub,2013-09-28 00:32:00,
2013-09-27 20:35:00,58.1,52.9,30.40,East,90,2.0,3.0,83,0.00,,,0.00,meteohub,2013-09-28 00:35:00,
2013-09-27 20:37:00,58.1,52.9,30.40,East,90,2.0,3.0,83,0.00,,,0.00,meteohub,2013-09-28 00:37:00,
2013-09-27 20:38:00,58.1,52.9,30.40,East,90,2.0,3.0,83,0.00,,,0.00,meteohub,2013-09-28 00:38:00,
2013-09-27 20:40:00,58.1,52.9,30.40,East,90,3.0,3.0,83,0.00,,,0.00,meteohub,2013-09-28 00:40:00,
2013-09-27 20:41:00,57.9,52.7,30.40,East,90,2.0,3.0,83,0.00,,,0.00,meteohub,2013-09-28 00:41:00,
2013-09-27 20:42:00,57.9,52.7,30.40,East,90,2.0,3.0,83,0.00,,,0.00,meteohub,2013-09-28 00:42:00,
2013-09-27 20:43:00,58.1,52.9,30.40,East,90,3.0,3.0,83,0.00,,,0.00,meteohub,2013-09-28 00:43:00,
2013-09-27 20:46:00,57.9,52.5,30.40,East,90,3.0,3.0,82,0.00,,,0.00,meteohub,2013-09-28 00:46:00,
2013-09-27 20:48:00,57.9,52.5,30.41,East,90,2.0,3.0,82,0.00,,,0.00,meteohub,2013-09-28 00:48:00,
2013-09-27 20:51:00,57.9,52.5,30.40,East,90,3.0,3.0,82,0.00,,,0.00,meteohub,2013-09-28 00:51:00,
2013-09-27 20:52:00,57.9,52.7,30.40,East,90,2.0,3.0,83,0.00,,,0.00,meteohub,2013-09-28 00:52:00,
2013-09-27 20:54:00,57.7,52.7,30.40,East,90,3.0,3.0,83,0.00,,,0.00,meteohub,2013-09-28 00:54:00,
2013-09-27 20:57:00,57.7,52.7,30.40,East,90,3.0,3.0,83,0.00,,,0.00,meteohub,2013-09-28 00:57:00,
2013-09-27 20:58:00,57.6,52.5,30.40,East,90,3.0,3.0,83,0.00,,,0.00,meteohub,2013-09-28 00:58:00,
2013-09-27 20:59:00,57.6,52.5,30.40,East,90,3.0,3.0,83,0.00,,,0.00,meteohub,2013-09-28 00:59:00,
2013-09-27 21:00:00,57.6,52.5,30.40,East,90,3.0,3.0,83,0.00,,,0.00,meteohub,2013-09-28 01:00:00,
2013-09-27 21:02:00,57.6,52.5,30.40,East,90,3.0,3.0,83,0.00,,,0.00,meteohub,2013-09-28 01:02:00,
2013-09-27 21:03:00,57.6,52.5,30.40,East,90,2.0,3.0,83,0.00,,,0.00,meteohub,2013-09-28 01:03:00,
2013-09-27 21:05:00,57.6,52.5,30.40,East,90,2.0,3.0,83,0.00,,,0.00,meteohub,2013-09-28 01:05:00,
2013-09-27 21:07:00,57.6,52.5,30.40,East,90,2.0,3.0,83,0.00,,,0.00,meteohub,2013-09-28 01:07:00,
2013-09-27 21:08:00,57.6,52.5,30.41,East,90,2.0,3.0,83,0.00,,,0.00,meteohub,2013-09-28 01:08:00,
2013-09-27 21:09:00,57.6,52.5,30.41,East,90,2.0,3.0,83,0.00,,,0.00,meteohub,2013-09-28 01:09:00,
2013-09-27 21:10:00,57.6,52.5,30.40,East,90,3.0,3.0,83,0.00,,,0.00,meteohub,2013-09-28 01:10:00,
2013-09-27 21:12:00,57.6,52.5,30.40,East,90,2.0,3.0,83,0.00,,,0.00,meteohub,2013-09-28 01:12:00,
2013-09-27 21:14:00,57.6,52.5,30.41,East,90,3.0,3.0,83,0.00,,,0.00,meteohub,2013-09-28 01:14:00,
2013-09-27 21:15:00,57.6,52.2,30.41,East,90,3.0,3.0,82,0.00,,,0.00,meteohub,2013-09-28 01:15:00,
2013-09-27 21:18:00,57.6,52.5,30.41,East,90,3.0,3.0,83,0.00,,,0.00,meteohub,2013-09-28 01:18:00,
2013-09-27 21:19:00,57.4,52.3,30.41,East,90,3.0,3.0,83,0.00,,,0.00,meteohub,2013-09-28 01:19:00,
2013-09-27 21:20:00,57.4,52.3,30.41,East,90,3.0,3.0,83,0.00,,,0.00,meteohub,2013-09-28 01:20:00,
2013-09-27 21:21:00,57.4,52.3,30.41,East,90,3.0,3.0,83,0.00,,,0.00,meteohub,2013-09-28 01:21:00,
2013-09-27 21:24:00,57.2,52.2,30.41,East,90,3.0,3.0,83,0.00,,,0.00,meteohub,2013-09-28 01:24:00,
2013-09-27 21:25:00,57.2,52.2,30.41,East,90,3.0,3.0,83,0.00,,,0.00,meteohub,2013-09-28 01:25:00,
2013-09-27 21:26:00,57.2,52.2,30.41,East,90,3.0,3.0,83,0.00,,,0.00,meteohub,2013-09-28 01:26:00,
2013-09-27 21:27:00,57.0,52.2,30.41,East,90,3.0,3.0,84,0.00,,,0.00,meteohub,2013-09-28 01:27:00,
2013-09-27 21:28:00,57.0,52.2,30.41,East,90,2.0,3.0,84,0.00,,,0.00,meteohub,2013-09-28 01:28:00,
2013-09-27 21:29:00,57.0,52.2,30.41,East,90,3.0,3.0,84,0.00,,,0.00,meteohub,2013-09-28 01:29:00,
2013-09-27 21:30:00,57.0,52.2,30.41,East,90,3.0,3.0,84,0.00,,,0.00,meteohub,2013-09-28 01:30:00,
2013-09-27 21:31:00,57.0,52.2,30.41,East,90,3.0,3.0,84,0.00,,,0.00,meteohub,2013-09-28 01:31:00,
2013-09-27 21:34:00,57.0,52.2,30.42,East,90,3.0,3.0,84,0.00,,,0.00,meteohub,2013-09-28 01:34:00,
2013-09-27 21:36:00,57.0,52.2,30.41,East,90,3.0,3.0,84,0.00,,,0.00,meteohub,2013-09-28 01:36:00,
2013-09-27 21:37:00,56.8,52.0,30.42,East,90,2.0,3.0,84,0.00,,,0.00,meteohub,2013-09-28 01:37:00,
2013-09-27 21:40:00,56.8,52.0,30.42,East,90,3.0,3.0,84,0.00,,,0.00,meteohub,2013-09-28 01:40:00,
2013-09-27 21:41:00,56.8,52.0,30.42,East,90,3.0,3.0,84,0.00,,,0.00,meteohub,2013-09-28 01:41:00,
2013-09-27 21:43:00,56.8,52.3,30.42,East,90,3.0,3.0,85,0.00,,,0.00,meteohub,2013-09-28 01:43:00,
2013-09-27 21:46:00,56.8,52.3,30.42,East,90,3.0,3.0,85,0.00,,,0.00,meteohub,2013-09-28 01:46:00,
2013-09-27 21:47:00,56.8,52.3,30.42,East,90,3.0,3.0,85,0.00,,,0.00,meteohub,2013-09-28 01:47:00,
2013-09-27 21:48:00,56.8,52.3,30.42,East,90,3.0,3.0,85,0.00,,,0.00,meteohub,2013-09-28 01:48:00,
2013-09-27 21:49:00,56.8,52.3,30.42,East,90,2.0,3.0,85,0.00,,,0.00,meteohub,2013-09-28 01:49:00,
2013-09-27 21:51:00,56.8,52.3,30.42,East,90,2.0,3.0,85,0.00,,,0.00,meteohub,2013-09-28 01:51:00,
2013-09-27 21:52:00,56.8,52.3,30.42,East,90,2.0,3.0,85,0.00,,,0.00,meteohub,2013-09-28 01:52:00,
2013-09-27 21:53:00,56.7,52.2,30.42,East,90,2.0,3.0,85,0.00,,,0.00,meteohub,2013-09-28 01:53:00,
2013-09-27 21:55:00,56.7,52.2,30.42,East,90,2.0,3.0,85,0.00,,,0.00,meteohub,2013-09-28 01:55:00,
2013-09-27 21:57:00,56.7,52.2,30.42,East,90,2.0,3.0,85,0.00,,,0.00,meteohub,2013-09-28 01:57:00,
2013-09-27 21:58:00,56.7,52.5,30.42,East,90,2.0,3.0,86,0.00,,,0.00,meteohub,2013-09-28 01:58:00,
2013-09-27 22:00:00,56.7,52.2,30.42,East,90,2.0,3.0,85,0.00,,,0.00,meteohub,2013-09-28 02:00:00,
2013-09-27 22:01:00,56.5,52.0,30.42,East,90,2.0,3.0,85,0.00,,,0.00,meteohub,2013-09-28 02:01:00,
2013-09-27 22:02:00,56.5,52.0,30.42,East,90,2.0,3.0,85,0.00,,,0.00,meteohub,2013-09-28 02:02:00,
2013-09-27 22:03:00,56.5,52.0,30.43,East,90,2.0,3.0,85,0.00,,,0.00,meteohub,2013-09-28 02:03:00,
2013-09-27 22:05:00,56.5,52.0,30.42,East,90,2.0,3.0,85,0.00,,,0.00,meteohub,2013-09-28 02:05:00,
2013-09-27 22:07:00,56.5,52.3,30.42,East,90,2.0,3.0,86,0.00,,,0.00,meteohub,2013-09-28 02:07:00,
2013-09-27 22:08:00,56.5,52.3,30.42,East,90,2.0,3.0,86,0.00,,,0.00,meteohub,2013-09-28 02:08:00,
2013-09-27 22:10:00,56.5,52.3,30.42,East,90,2.0,3.0,86,0.00,,,0.00,meteohub,2013-09-28 02:10:00,
2013-09-27 22:12:00,56.5,52.3,30.42,East,90,2.0,2.0,86,0.00,,,0.00,meteohub,2013-09-28 02:12:00,
2013-09-27 22:13:00,56.5,52.0,30.42,East,90,3.0,3.0,85,0.00,,,0.00,meteohub,2013-09-28 02:13:00,
2013-09-27 22:16:00,56.5,52.0,30.42,East,90,3.0,3.0,85,0.00,,,0.00,meteohub,2013-09-28 02:16:00,
2013-09-27 22:17:00,56.5,52.0,30.42,East,90,3.0,3.0,85,0.00,,,0.00,meteohub,2013-09-28 02:17:00,
2013-09-27 22:19:00,56.5,52.0,30.42,East,90,3.0,3.0,85,0.00,,,0.00,meteohub,2013-09-28 02:19:00,
2013-09-27 22:22:00,56.7,52.2,30.42,East,90,3.0,3.0,85,0.00,,,0.00,meteohub,2013-09-28 02:22:00,
2013-09-27 22:24:00,56.7,52.2,30.43,East,90,3.0,3.0,85,0.00,,,0.00,meteohub,2013-09-28 02:24:00,
2013-09-27 22:25:00,56.7,51.8,30.43,East,90,3.0,3.0,84,0.00,,,0.00,meteohub,2013-09-28 02:25:00,
2013-09-27 22:27:00,56.7,52.2,30.43,East,90,3.0,3.0,85,0.00,,,0.00,meteohub,2013-09-28 02:27:00,
2013-09-27 22:28:00,56.7,51.8,30.42,East,90,3.0,3.0,84,0.00,,,0.00,meteohub,2013-09-28 02:28:00,
2013-09-27 22:30:00,56.7,52.2,30.43,East,90,2.0,3.0,85,0.00,,,0.00,meteohub,2013-09-28 02:30:00,
2013-09-27 22:31:00,56.7,51.8,30.43,East,90,2.0,3.0,84,0.00,,,0.00,meteohub,2013-09-28 02:31:00,
2013-09-27 22:33:00,56.5,51.6,30.43,East,90,2.0,3.0,84,0.00,,,0.00,meteohub,2013-09-28 02:33:00,
2013-09-27 22:36:00,56.5,51.6,30.43,East,90,3.0,3.0,84,0.00,,,0.00,meteohub,2013-09-28 02:36:00,
2013-09-27 22:37:00,56.5,51.6,30.43,East,90,3.0,3.0,84,0.00,,,0.00,meteohub,2013-09-28 02:37:00,
2013-09-27 22:38:00,56.5,51.6,30.43,East,90,3.0,3.0,84,0.00,,,0.00,meteohub,2013-09-28 02:38:00,
2013-09-27 22:39:00,56.3,51.8,30.43,East,90,3.0,3.0,85,0.00,,,0.00,meteohub,2013-09-28 02:39:00,
2013-09-27 22:42:00,56.3,51.8,30.43,East,90,3.0,3.0,85,0.00,,,0.00,meteohub,2013-09-28 02:42:00,
2013-09-27 22:43:00,56.1,51.6,30.43,East,90,3.0,3.0,85,0.00,,,0.00,meteohub,2013-09-28 02:43:00,
2013-09-27 22:44:00,56.1,51.6,30.43,East,90,3.0,3.0,85,0.00,,,0.00,meteohub,2013-09-28 02:44:00,
2013-09-27 22:47:00,56.1,51.6,30.43,East,90,3.0,4.0,85,0.00,,,0.00,meteohub,2013-09-28 02:47:00,
2013-09-27 22:48:00,56.1,51.6,30.43,East,90,3.0,4.0,85,0.00,,,0.00,meteohub,2013-09-28 02:48:00,
2013-09-27 22:49:00,56.1,51.6,30.43,East,90,3.0,4.0,85,0.00,,,0.00,meteohub,2013-09-28 02:49:00,
2013-09-27 22:50:00,56.1,51.6,30.43,East,90,2.0,4.0,85,0.00,,,0.00,meteohub,2013-09-28 02:50:00,
2013-09-27 22:53:00,56.3,51.8,30.43,East,90,3.0,4.0,85,0.00,,,0.00,meteohub,2013-09-28 02:53:00,
2013-09-27 22:54:00,56.3,51.8,30.43,East,90,3.0,4.0,85,0.00,,,0.00,meteohub,2013-09-28 02:54:00,
2013-09-27 22:55:00,56.5,52.0,30.43,East,90,1.0,4.0,85,0.00,,,0.00,meteohub,2013-09-28 02:55:00,
2013-09-27 22:56:00,56.5,52.0,30.43,East,90,4.0,4.0,85,0.00,,,0.00,meteohub,2013-09-28 02:56:00,
2013-09-27 23:00:00,56.5,52.0,30.43,East,90,3.0,4.0,85,0.00,,,0.00,meteohub,2013-09-28 03:00:00,
2013-09-27 23:01:00,56.5,52.0,30.43,East,90,3.0,4.0,85,0.00,,,0.00,meteohub,2013-09-28 03:01:00,
2013-09-27 23:02:00,56.5,52.0,30.43,East,90,3.0,4.0,85,0.00,,,0.00,meteohub,2013-09-28 03:02:00,
2013-09-27 23:04:00,56.5,52.0,30.43,East,90,3.0,4.0,85,0.00,,,0.00,meteohub,2013-09-28 03:04:00,
2013-09-27 23:05:00,56.5,52.0,30.43,East,90,3.0,4.0,85,0.00,,,0.00,meteohub,2013-09-28 03:05:00,
2013-09-27 23:07:00,56.5,52.0,30.43,East,90,3.0,4.0,85,0.00,,,0.00,meteohub,2013-09-28 03:07:00,
2013-09-27 23:08:00,56.7,51.8,30.43,East,90,2.0,4.0,84,0.00,,,0.00,meteohub,2013-09-28 03:08:00,
2013-09-27 23:09:00,56.5,51.6,30.43,East,90,2.0,4.0,84,0.00,,,0.00,meteohub,2013-09-28 03:09:00,
2013-09-27 23:11:00,56.5,51.4,30.43,East,90,3.0,4.0,83,0.00,,,0.00,meteohub,2013-09-28 03:11:00,
2013-09-27 23:12:00,56.5,51.6,30.43,East,90,3.0,4.0,84,0.00,,,0.00,meteohub,2013-09-28 03:12:00,
2013-09-27 23:13:00,56.5,51.6,30.43,East,90,2.0,4.0,84,0.00,,,0.00,meteohub,2013-09-28 03:13:00,
2013-09-27 23:15:00,56.5,51.6,30.43,East,90,2.0,4.0,84,0.00,,,0.00,meteohub,2013-09-28 03:15:00,
2013-09-27 23:16:00,56.3,51.4,30.43,East,90,2.0,3.0,84,0.00,,,0.00,meteohub,2013-09-28 03:16:00,
2013-09-27 23:19:00,56.1,51.6,30.43,East,90,2.0,3.0,85,0.00,,,0.00,meteohub,2013-09-28 03:19:00,
2013-09-27 23:20:00,55.9,51.4,30.43,East,90,2.0,3.0,85,0.00,,,0.00,meteohub,2013-09-28 03:20:00,
2013-09-27 23:21:00,55.9,51.4,30.43,East,90,2.0,3.0,85,0.00,,,0.00,meteohub,2013-09-28 03:21:00,
2013-09-27 23:24:00,55.9,51.4,30.43,East,90,3.0,3.0,85,0.00,,,0.00,meteohub,2013-09-28 03:24:00,
2013-09-27 23:25:00,55.9,51.4,30.43,East,90,3.0,3.0,85,0.00,,,0.00,meteohub,2013-09-28 03:25:00,
2013-09-27 23:26:00,55.8,51.3,30.43,East,90,2.0,3.0,85,0.00,,,0.00,meteohub,2013-09-28 03:26:00,
2013-09-27 23:27:00,55.8,51.3,30.43,East,90,2.0,3.0,85,0.00,,,0.00,meteohub,2013-09-28 03:27:00,
2013-09-27 23:29:00,55.8,51.6,30.43,East,90,2.0,3.0,86,0.00,,,0.00,meteohub,2013-09-28 03:29:00,
2013-09-27 23:30:00,55.6,51.4,30.43,East,90,2.0,3.0,86,0.00,,,0.00,meteohub,2013-09-28 03:30:00,
2013-09-27 23:32:00,55.6,51.4,30.43,East,90,3.0,3.0,86,0.00,,,0.00,meteohub,2013-09-28 03:32:00,
2013-09-27 23:34:00,55.6,51.4,30.43,East,90,2.0,3.0,86,0.00,,,0.00,meteohub,2013-09-28 03:34:00,
2013-09-27 23:36:00,55.6,51.4,30.43,East,90,2.0,3.0,86,0.00,,,0.00,meteohub,2013-09-28 03:36:00,
2013-09-27 23:37:00,55.6,51.4,30.43,East,90,2.0,3.0,86,0.00,,,0.00,meteohub,2013-09-28 03:37:00,
2013-09-27 23:40:00,55.4,51.3,30.43,East,90,3.0,3.0,86,0.00,,,0.00,meteohub,2013-09-28 03:40:00,
2013-09-27 23:41:00,55.4,51.3,30.43,East,90,3.0,3.0,86,0.00,,,0.00,meteohub,2013-09-28 03:41:00,
2013-09-27 23:42:00,55.6,51.4,30.43,East,90,3.0,3.0,86,0.00,,,0.00,meteohub,2013-09-28 03:42:00,
2013-09-27 23:43:00,55.6,51.4,30.43,East,90,3.0,3.0,86,0.00,,,0.00,meteohub,2013-09-28 03:43:00,
2013-09-27 23:45:00,55.4,51.3,30.43,East,90,3.0,3.0,86,0.00,,,0.00,meteohub,2013-09-28 03:45:00,
2013-09-27 23:46:00,55.4,51.3,30.43,East,90,3.0,3.0,86,0.00,,,0.00,meteohub,2013-09-28 03:46:00,
2013-09-27 23:47:00,55.4,51.3,30.43,East,90,0.0,3.0,86,0.00,,,0.00,meteohub,2013-09-28 03:47:00,
2013-09-27 23:48:00,55.4,51.3,30.43,East,90,1.0,3.0,86,0.00,,,0.00,meteohub,2013-09-28 03:48:00,
2013-09-27 23:51:00,55.4,51.3,30.43,East,90,0.0,3.0,86,0.00,,,0.00,meteohub,2013-09-28 03:51:00,
2013-09-27 23:53:00,55.4,51.3,30.43,East,90,1.0,3.0,86,0.00,,,0.00,meteohub,2013-09-28 03:53:00,
2013-09-27 23:54:00,55.4,51.3,30.43,East,90,1.0,3.0,86,0.00,,,0.00,meteohub,2013-09-28 03:54:00,
2013-09-27 23:56:00,55.2,51.4,30.43,East,90,1.0,3.0,87,0.00,,,0.00,meteohub,2013-09-28 03:56:00,
2013-09-27 23:58:00,55.0,51.3,30.43,East,90,0.0,3.0,87,0.00,,,0.00,meteohub,2013-09-28 03:58:00,
2013-09-27 23:59:00,55.0,51.3,30.43,East,90,0.0,3.0,87,0.00,,,0.00,meteohub,2013-09-28 03:59:00,